GFSNGP_sfc_temp_000.txt.gz
Temp
51 53 52 50 50 53 51 51 43 48 52 58 62 63 62 62 61 61 61 61 58 57 58 58 57 57 58 58 57 56 54 52 51 49 49 49 48 47 47 46 46 45 44 43
39 49 50 46 49 51 52 53 53 54 53 64 65 64 61 59 59 58 56 55 55 57 55 55 56 56 55 56 56 55 52 48 48 48 49 48 46 46 45 44 43 43 41 41
35 44 40 34 43 49 53 56 55 45 53 62 60 58 56 56 58 53 53 53 55 53 53 55 55 53 52 53 51 48 47 46 46 47 48 46 46 45 42 40 40 39 39 39
33 33 28 49 60 57 53 56 58 57 58 59 58 58 57 58 52 51 50 52 52 53 55 55 52 49 48 49 50 47 46 46 48 48 46 46 44 42 40 39 38 38 37 37
32 35 41 47 53 51 48 48 58 55 55 57 57 54 51 57 54 51 51 53 52 56 54 50 48 47 45 45 45 45 48 49 49 47 45 44 41 39 38 37 37 37 37 35
37 31 29 44 56 61 59 40 53 53 51 50 49 38 43 54 54 54 54 54 55 52 50 48 46 48 48 48 48 48 49 47 47 46 44 42 39 37 37 37 36 35 34 34
35 32 39 53 59 59 37 37 49 50 50 49 46 46 50 54 54 55 55 55 54 50 46 47 50 50 49 50 49 48 47 46 46 45 43 41 39 38 37 36 33 31 28 30
33 32 31 60 57 39 48 53 52 50 49 48 51 52 53 54 52 54 54 52 49 47 47 49 50 49 49 47 47 47 46 44 43 42 42 42 37 36 36 34 30 27 27 28
44 43 55 59 56 58 57 52 52 51 54 53 51 52 53 52 53 51 47 46 47 47 47 48 50 50 47 44 46 44 43 41 40 40 39 39 35 34 34 33 30 28 29 27
43 50 54 55 58 58 58 53 54 55 53 53 52 53 54 54 52 49 45 43 46 45 46 46 49 47 45 44 44 43 39 37 37 35 35 35 36 35 33 30 28 27 26 26
42 49 53 54 56 57 55 56 53 53 51 54 53 53 53 50 49 44 41 44 45 45 45 46 44 43 44 41 41 38 35 35 35 34 33 34 34 33 31 29 29 27 27 26
39 51 49 51 57 58 54 51 53 55 54 55 54 51 49 47 45 42 41 45 46 46 47 46 43 42 41 40 36 33 32 33 32 31 31 33 33 32 35 33 33 33 32 28
51 58 57 58 58 57 52 50 56 55 55 51 49 47 45 43 43 43 46 44 44 46 46 41 40 39 39 33 31 29 29 30 31 30 31 30 29 28 26 30 33 33 32 30
59 57 49 53 51 55 56 57 57 56 53 51 47 46 44 44 44 44 44 46 46 46 45 39 39 38 37 37 33 29 32 29 29 29 29 28 27 27 27 25 24 26 30 29
55 56 55 55 56 56 57 55 52 49 47 45 46 43 44 42 42 44 46 42 41 43 42 39 35 34 37 36 33 32 32 31 28 27 27 27 27 27 28 24 26 26 26 26
53 54 54 52 52 53 53 52 48 46 42 43 40 39 42 44 43 43 42 35 32 33 34 28 27 33 35 35 34 34 35 28 26 27 27 27 26 26 26 24 25 25 23 22
46 45 46 46 50 50 50 50 46 41 40 40 36 33 35 33 33 33 34 30 30 30 29 28 30 36 34 34 35 34 34 32 28 30 27 26 27 24 25 24 24 23 23 23
54 53 53 51 50 47 44 42 38 37 36 35 30 28 29 28 30 30 30 30 28 28 29 30 29 33 31 34 31 30 31 30 30 28 28 27 25 26 24 23 24 23 22 22
53 51 51 51 48 42 42 39 36 35 32 29 29 28 29 29 30 29 29 27 27 28 31 29 31 28 31 31 28 29 31 29 28 28 27 23 25 24 23 23 23 23 22 21
48 49 49 47 43 35 34 35 34 33 34 31 29 30 31 31 28 27 28 28 30 31 31 31 31 31 31 31 26 29 29 27 27 26 26 25 25 22 22 21 22 21 21 21
40 41 39 36 34 34 34 32 32 32 32 30 29 29 28 30 29 32 31 30 31 32 30 31 31 32 32 32 30 31 28 27 27 26 25 23 25 23 23 23 22 21 20 20
41 38 34 34 33 33 34 33 32 32 31 31 29 29 30 32 32 32 30 32 34 33 32 32 31 32 31 28 30 30 29 28 26 26 25 23 21 20 21 21 20 21 20 19
40 38 37 34 34 35 34 33 32 32 32 31 32 32 32 32 32 31 30 33 33 33 32 32 32 31 28 29 30 30 29 27 26 26 25 24 21 19 20 20 20 19 18 19
39 38 37 36 34 33 32 32 33 32 32 33 32 31 31 32 32 34 34 34 33 32 32 32 31 30 28 29 30 30 29 28 27 27 25 15 21 19 21 20 19 19 18 17
35 35 36 34 33 33 33 34 33 33 32 32 33 32 32 35 32 32 32 32 32 32 32 32 29 28 28 29 29 29 29 28 27 26 26 24 21 19 22 21 18 18 17 17
37 37 35 35 35 35 36 37 35 35 35 34 33 33 34 33 34 33 33 33 32 32 32 32 31 30 29 29 29 29 28 28 25 24 24 22 21 18 19 19 19 19 18 16
37 34 33 33 34 35 36 37 35 34 33 32 32 32 33 32 33 32 32 32 32 32 32 32 32 31 29 30 30 29 28 28 25 25 24 24 21 20 19 18 19 18 17 16

GFSNGP_sfc_temp_003.txt.gz
Temp
45 47 49 47 46 46 43 43 36 42 44 50 53 53 51 53 54 54 51 51 51 52 51 49 52 52 49 49 50 51 49 45 42 42 43 44 43 43 43 42 43 42 41 40
37 45 46 40 42 45 45 44 45 46 45 54 55 53 52 51 52 50 50 51 52 52 52 52 52 49 49 48 48 48 46 44 44 44 44 44 45 45 42 41 40 39 37 36
36 40 37 29 39 42 45 48 46 36 43 49 48 49 49 49 48 48 50 50 50 50 50 51 48 47 44 46 47 47 45 45 43 43 43 43 45 43 40 37 36 34 34 34
32 30 27 42 53 52 47 48 49 46 46 48 47 50 52 53 47 48 49 49 47 49 50 45 44 43 43 44 47 45 45 45 44 43 42 42 41 40 36 35 33 33 32 32
32 30 35 41 47 42 41 43 47 46 49 51 50 48 48 51 49 48 49 47 49 48 45 42 42 42 43 42 44 44 43 44 43 42 41 40 38 35 34 32 31 31 32 31
28 25 26 37 48 53 52 36 46 48 45 44 43 36 42 48 50 50 48 49 47 46 43 41 42 44 44 46 43 41 42 42 43 42 40 38 35 33 32 31 31 31 30 30
20 28 33 45 51 51 31 37 45 45 46 45 42 43 49 51 48 48 49 47 45 42 45 44 47 47 44 40 40 42 42 43 42 41 38 36 33 32 31 30 28 21 20 24
29 31 26 51 48 36 42 44 49 45 45 46 48 47 49 48 47 47 42 42 42 42 42 44 46 44 41 40 43 43 42 40 38 37 38 37 31 30 30 27 21 19 16 20
35 33 45 51 49 51 53 50 46 45 48 47 46 46 47 46 46 42 40 39 42 40 44 46 45 43 40 40 42 39 37 35 34 35 35 33 30 28 27 25 20 18 22 22
36 45 49 50 53 54 53 48 51 49 47 48 46 45 45 44 40 38 38 38 40 42 43 42 42 41 40 39 38 37 33 32 33 30 30 29 30 29 26 19 17 23 21 23
39 46 48 50 49 51 51 49 48 48 48 49 47 43 42 42 40 37 38 39 41 41 41 40 39 37 39 37 36 32 31 31 29 28 28 28 29 28 24 23 22 25 25 25
37 48 46 48 49 51 49 47 47 47 47 47 44 41 43 42 39 38 37 39 41 43 40 39 38 36 36 34 32 29 29 28 25 23 24 26 26 27 32 31 33 32 32 27
46 51 51 49 51 52 50 50 51 50 47 46 43 43 40 38 41 40 43 41 41 42 40 37 37 36 35 31 29 26 25 27 25 25 23 21 22 21 19 23 30 31 31 29
53 52 47 47 44 51 52 52 52 51 48 46 44 42 41 40 41 40 40 40 41 41 40 37 35 33 33 31 27 23 23 24 20 19 18 19 18 22 14 17 15 17 27 26
52 51 49 49 49 51 52 51 48 45 43 42 41 39 39 38 38 38 39 38 37 37 36 35 33 32 33 33 30 28 28 25 19 17 15 16 20 15 14 14 13 18 23 24
49 49 49 47 47 47 47 47 44 42 40 39 38 36 36 36 35 35 34 31 29 29 30 25 22 28 31 31 30 27 26 25 22 20 17 19 16 16 14 14 13 20 21 20
39 38 41 41 43 44 43 42 40 37 37 34 31 28 31 27 25 26 29 26 23 23 23 21 25 30 31 30 29 23 22 26 27 27 25 21 16 14 18 12 11 19 20 21
46 47 47 45 44 41 36 35 32 31 33 32 24 22 20 19 23 24 24 23 23 22 21 24 29 28 25 30 29 25 22 26 25 22 21 15 14 18 14 13 11 18 20 20
45 43 43 44 40 36 34 33 30 31 29 28 24 26 22 24 23 23 21 16 15 19 28 29 31 30 29 28 27 19 18 23 22 19 19 18 15 14 14 10 10 15 19 18
40 40 40 39 38 30 30 27 33 32 29 26 25 22 27 25 21 19 28 24 28 29 28 28 28 27 27 27 24 21 18 16 18 20 19 15 14 14 14 12 15 13 15 17
34 34 32 30 29 27 24 32 31 28 30 28 24 25 24 22 24 30 19 25 30 29 29 30 29 28 29 28 24 20 18 21 21 16 17 16 10 11 11 9 14 13 13 16
34 31 30 29 33 34 34 33 31 30 29 26 26 22 26 24 20 20 16 28 31 30 30 29 28 29 27 22 21 27 26 24 17 19 18 13 10 10 8 11 14 12 11 12
34 32 32 27 32 34 34 33 33 31 28 28 25 30 31 23 22 19 24 29 31 30 31 30 29 29 27 27 27 27 26 24 17 17 18 15 11 7 9 11 14 11 10 12
33 32 32 29 29 31 32 32 31 29 29 28 32 32 23 21 22 28 29 30 30 30 30 30 28 28 27 26 27 27 26 24 20 19 19 16 13 8 10 12 12 11 10 13
32 32 30 25 28 30 32 31 28 28 28 30 31 30 30 30 29 30 27 29 31 29 30 30 28 27 26 26 27 27 24 22 19 19 19 17 14 8 11 13 12 12 12 12
32 34 30 31 33 34 33 29 29 30 29 29 31 31 31 28 31 27 18 27 29 29 29 30 29 28 27 27 27 27 20 18 18 17 18 17 15 10 8 10 12 14 12 11
33 28 28 31 32 32 33 32 32 31 32 29 28 30 29 28 31 31 31 29 28 29 29 31 30 29 28 27 22 23 25 19 22 17 17 18 17 14 10 8 10 12 10 10

GFSNGP_sfc_temp_006.txt.gz
Temp
41 44 44 44 43 44 40 40 31 37 39 45 45 45 48 49 50 50 49 49 48 48 47 47 47 47 46 45 46 45 44 42 40 41 41 41 41 41 43 43 42 41 39 38
37 42 42 38 43 42 41 42 40 41 41 45 47 48 47 47 49 48 47 49 50 49 48 48 48 46 45 44 44 44 44 44 44 44 43 42 42 42 42 40 40 38 36 35
33 35 34 32 37 39 42 44 41 33 40 44 43 45 47 47 48 47 46 48 48 47 47 46 44 45 42 42 42 45 45 44 43 43 42 42 42 41 39 36 35 34 33 32
27 31 26 41 47 47 43 44 45 43 44 45 46 48 49 50 49 45 47 49 48 46 45 44 43 42 41 41 42 42 42 43 42 41 40 39 38 37 34 34 33 31 31 31
27 29 34 40 45 40 37 39 45 43 45 45 46 45 43 50 49 50 50 48 47 44 43 41 40 40 40 40 41 43 39 39 39 38 38 38 35 32 32 30 30 30 30 29
29 27 26 36 45 49 47 32 46 45 43 43 43 37 43 48 49 50 48 45 43 43 41 39 40 41 39 39 39 39 40 41 41 40 38 35 33 32 30 29 30 29 29 28
19 25 28 42 47 49 28 34 42 45 46 45 42 44 47 48 49 47 42 42 42 41 40 40 45 44 40 39 38 41 41 40 39 38 37 34 32 30 29 28 26 19 18 21
28 26 27 47 47 37 41 42 47 48 45 44 45 44 46 46 45 43 40 41 41 39 39 44 44 41 39 36 41 40 39 37 36 35 35 34 30 29 28 25 20 19 15 17
33 32 43 46 48 47 49 48 46 46 47 45 44 44 44 42 40 39 39 37 39 38 42 42 42 40 38 36 38 36 35 33 32 33 32 31 28 26 26 23 18 18 21 19
36 43 46 47 52 52 49 45 48 47 44 46 43 43 43 43 41 39 37 36 38 40 41 38 39 38 36 36 35 33 31 31 31 29 29 28 28 28 25 18 17 23 21 21
39 44 47 48 48 48 50 48 47 47 46 44 45 45 42 40 40 38 37 37 38 39 37 38 37 35 36 35 33 32 30 30 29 27 26 27 28 26 24 23 21 21 20 25
37 47 45 47 49 49 46 44 43 42 43 46 46 42 42 39 38 37 36 38 39 39 39 38 36 35 35 34 32 30 30 29 24 23 22 25 25 26 31 29 31 31 31 26
46 51 48 49 47 47 45 44 46 47 48 45 43 42 40 38 38 39 40 39 39 40 39 36 35 34 34 31 27 26 24 26 24 24 22 21 19 20 15 21 28 29 30 29
53 48 43 44 42 46 47 49 48 48 47 45 42 41 39 38 38 37 37 39 38 38 37 35 34 33 33 31 26 21 20 21 21 21 20 20 13 14 14 11 9 14 23 26
48 46 45 45 47 46 48 48 45 42 42 41 40 38 37 36 34 35 35 35 34 36 35 34 31 30 31 31 29 27 26 21 17 18 19 16 14 14 11 10 11 12 13 22
45 44 45 43 43 45 45 43 41 39 39 37 36 34 34 33 33 33 34 32 28 28 29 24 20 27 29 30 29 27 26 25 22 21 21 18 17 13 13 11 11 10 11 18
39 36 38 38 39 39 39 39 36 35 35 34 32 27 30 27 28 28 29 27 23 21 20 24 25 31 30 31 29 25 27 23 26 24 16 19 14 11 11 9 9 8 14 17
43 43 41 41 38 36 34 34 31 30 30 30 26 22 24 21 25 27 25 24 22 21 27 27 27 29 26 29 28 24 19 24 24 18 17 12 12 14 9 9 7 9 15 16
42 41 40 39 37 34 32 31 29 28 29 32 28 27 24 21 26 24 23 21 24 23 27 22 29 29 27 29 27 18 15 17 17 18 14 11 9 9 8 6 5 9 12 14
41 41 39 37 35 29 30 29 25 28 31 30 27 26 24 26 26 24 27 25 27 27 27 28 28 27 27 26 25 20 18 16 20 14 9 9 8 7 8 10 11 10 9 12
35 35 32 30 29 29 34 33 31 32 32 30 29 26 27 23 25 25 19 25 27 30 30 29 28 27 28 24 23 20 24 24 20 11 8 9 7 4 2 8 12 9 9 11
34 30 29 28 27 29 31 33 30 30 32 30 23 26 23 25 21 19 20 27 29 29 28 27 27 28 26 25 25 26 26 25 20 9 11 11 10 5 3 8 10 8 8 9
34 33 32 29 31 30 32 34 30 33 32 30 25 27 27 26 23 20 23 27 29 29 27 28 28 28 27 26 27 26 26 25 17 14 14 13 10 4 2 9 10 8 8 10
34 33 32 32 27 30 30 31 28 31 31 26 29 30 29 25 20 26 27 29 29 29 28 29 28 27 27 26 26 27 26 25 17 15 16 14 13 8 3 8 10 9 9 9
32 32 31 28 28 30 29 29 29 30 29 29 30 30 30 30 29 22 28 27 28 29 28 28 29 27 26 26 26 26 26 17 14 14 14 13 12 9 5 7 8 9 8 7
33 34 34 32 32 33 32 28 30 30 29 29 29 31 31 28 28 28 29 28 26 28 27 28 28 27 27 26 25 26 26 22 15 11 10 9 10 10 7 5 4 8 8 7
32 26 28 30 30 31 31 31 31 30 30 31 30 32 30 29 28 28 29 28 27 27 27 27 27 27 28 27 26 25 20 24 19 12 12 13 9 11 10 7 8 8 8 7

GFSNGP_sfc_temp_009.txt.gz
Temp
39 41 41 42 41 42 38 38 33 37 37 43 44 43 45 47 47 47 49 49 48 49 48 47 46 45 44 44 43 43 42 40 38 41 42 40 40 40 42 43 43 40 38 37
34 39 40 37 40 40 40 39 37 37 37 45 44 46 45 46 47 46 46 47 48 49 48 46 46 44 43 43 41 41 41 42 43 43 43 42 42 41 40 40 39 37 35 34
27 34 32 29 34 37 39 41 40 32 39 42 42 43 43 45 46 45 46 47 47 47 46 45 44 43 41 41 41 41 41 42 41 41 41 41 41 40 37 36 35 34 33 32
23 32 23 40 44 45 41 43 43 42 42 43 44 46 46 47 45 45 45 48 48 47 43 44 43 41 39 39 39 40 40 38 41 40 39 37 36 35 33 32 32 31 30 30
28 27 32 40 43 38 36 38 44 42 42 45 47 42 41 46 45 45 47 48 45 44 43 41 39 38 38 38 38 38 39 39 39 39 37 35 34 32 31 29 30 29 30 29
29 26 24 35 43 46 44 31 43 43 43 45 42 36 41 45 46 45 46 46 44 43 41 38 39 39 39 38 40 37 40 40 38 37 35 33 31 30 31 30 29 29 28 28
26 25 29 40 45 45 30 34 42 45 46 42 40 42 44 45 45 46 44 43 43 40 38 39 41 40 38 37 36 38 38 37 36 36 34 32 31 30 28 27 25 19 18 21
27 26 23 45 45 37 42 42 44 44 42 41 42 43 42 44 44 44 40 39 39 37 37 39 39 38 36 34 36 36 35 34 33 32 32 32 29 27 27 25 21 19 14 17
33 33 42 45 46 46 46 43 42 41 45 45 42 41 43 43 43 41 39 37 37 36 38 42 40 38 36 34 36 34 32 31 30 31 30 29 27 25 26 23 19 18 22 21
36 43 45 47 50 52 49 44 46 46 44 41 37 41 43 44 41 40 38 35 36 36 36 35 39 38 38 36 35 32 31 30 30 28 28 27 28 28 25 20 18 22 20 21
39 45 45 47 48 47 48 45 43 43 42 41 42 43 44 40 40 38 36 35 36 36 35 35 36 35 36 35 34 32 31 30 28 27 26 27 28 26 25 23 20 20 18 22
37 47 45 48 46 44 43 42 43 42 42 44 44 43 42 39 38 36 36 36 37 37 35 36 34 33 34 34 32 31 30 28 24 22 22 25 25 25 30 28 30 30 30 26
45 50 48 46 44 45 43 43 45 44 44 41 41 40 39 37 37 37 38 37 36 36 36 34 33 32 32 29 27 24 23 25 23 23 22 22 20 19 14 20 27 28 28 28
50 48 43 42 40 45 45 45 45 45 45 43 41 39 38 37 36 35 34 35 35 34 33 30 30 30 31 30 25 20 18 19 16 16 16 20 16 17 11 10 8 13 21 25
44 44 43 43 43 43 45 44 42 40 40 39 38 36 35 33 32 33 34 32 32 32 30 29 27 28 29 29 28 25 27 23 19 14 14 14 16 15 10 9 8 10 12 17
42 43 44 40 42 42 42 39 37 36 35 34 33 32 32 32 33 34 32 29 26 25 25 24 20 26 30 32 30 28 27 24 19 21 20 15 15 10 12 8 9 9 8 13
36 37 38 37 36 36 36 36 34 32 31 31 29 28 30 30 29 26 27 22 17 17 27 27 27 31 29 30 30 26 22 22 25 25 17 14 11 11 9 11 6 8 7 13
40 40 39 39 37 35 33 33 31 30 30 31 30 31 29 28 25 23 22 19 16 25 26 22 23 29 27 29 29 22 17 20 23 15 14 10 10 10 7 8 7 6 5 12
42 41 42 40 38 35 32 32 29 28 28 25 27 30 28 27 23 26 23 21 18 21 24 23 28 28 27 28 28 24 16 17 15 16 12 10 7 7 6 5 6 5 6 10
38 39 39 37 36 30 30 31 31 31 33 31 28 26 27 26 24 23 23 22 23 25 27 29 28 27 22 25 24 21 17 20 23 16 6 6 2 2 0 5 10 6 4 7
34 33 31 30 30 29 25 30 30 30 31 28 30 30 29 24 20 20 22 26 25 27 30 28 27 26 28 26 26 25 23 24 23 11 7 6 2 3 1 -1 4 4 4 6
33 31 30 29 28 29 30 27 29 33 31 33 33 30 24 24 24 26 25 25 27 30 27 26 26 27 26 26 25 25 25 25 23 11 10 9 2 1 0 -1 3 4 3 6
32 32 32 28 28 31 29 27 29 31 30 32 32 28 27 27 27 25 24 25 27 28 27 27 28 28 27 25 25 26 26 25 24 12 13 12 9 1 -0 1 1 3 3 7
32 32 32 31 28 24 26 31 28 27 25 27 27 30 28 28 25 26 26 27 27 28 28 28 28 27 27 24 25 25 26 25 20 12 13 13 8 6 -1 -1 2 0 1 5
29 30 30 27 28 30 30 31 27 25 26 28 26 30 30 29 28 24 21 23 24 27 27 27 21 19 22 25 23 24 25 25 17 10 9 9 10 9 0 -1 -1 -1 0 4
31 32 32 31 31 31 31 31 30 31 29 28 27 28 30 29 30 29 28 27 25 27 26 27 26 23 23 21 21 23 19 19 18 13 10 9 7 10 8 1 -1 -1 1 2
28 23 30 32 31 31 32 32 31 32 31 29 26 29 31 29 29 28 27 27 26 26 26 26 26 26 21 15 15 16 21 19 16 17 13 12 13 14 12 10 4 2 -1 1

GFSNGP_sfc_temp_012.txt.gz
Temp
38 40 39 39 38 39 35 36 33 38 35 42 44 42 43 45 46 48 48 47 46 45 48 49 49 47 45 44 42 41 40 39 38 39 38 38 38 39 40 40 40 39 38 37
32 35 35 32 37 38 37 37 36 37 36 45 43 43 43 45 46 45 45 44 45 46 45 45 46 43 43 43 41 41 40 40 43 43 42 40 41 41 40 40 39 36 34 33
26 31 31 27 34 35 37 39 38 33 40 40 40 43 44 45 43 44 42 45 44 47 48 47 44 43 42 41 39 39 40 42 41 42 41 40 40 38 35 33 33 32 32 31
23 32 19 39 42 44 39 41 42 40 40 41 43 44 44 45 43 41 41 44 45 47 45 43 42 40 38 37 38 38 37 38 39 39 39 36 35 33 32 32 32 30 30 30
29 29 31 40 41 37 35 36 41 39 41 44 45 42 42 43 43 43 43 44 45 43 43 41 38 37 36 37 36 37 37 37 37 35 34 34 32 31 31 30 30 29 30 29
28 26 23 35 41 43 42 30 41 44 45 44 41 34 40 43 44 43 46 46 43 41 41 39 38 37 40 37 36 35 36 35 35 33 32 30 29 28 30 28 29 30 28 27
27 27 30 39 43 44 30 34 41 45 44 41 36 39 40 42 44 46 45 43 42 39 37 37 39 39 36 35 34 35 35 35 33 32 30 29 28 28 27 26 26 20 18 20
26 26 24 42 42 37 43 41 43 41 39 41 41 40 41 41 44 44 41 41 40 37 36 38 41 38 35 32 36 36 34 32 30 30 30 30 27 27 27 24 21 19 15 17
36 31 41 46 46 46 45 42 41 39 43 41 38 39 41 40 43 43 40 38 37 35 36 37 37 38 36 36 37 34 32 30 29 30 30 29 27 25 25 23 18 18 21 21
37 41 42 46 49 48 44 43 43 42 40 41 40 41 40 40 42 40 39 36 35 35 35 35 36 36 35 34 34 31 31 30 29 27 27 27 28 28 25 19 18 21 20 20
37 44 44 45 43 43 42 43 42 42 42 41 41 39 39 39 38 37 36 36 36 35 34 34 35 34 34 34 32 31 30 30 29 27 26 27 27 26 24 23 20 21 18 18
37 46 44 45 43 44 42 41 43 42 42 42 40 38 38 37 37 35 35 35 35 35 34 34 34 33 32 32 31 29 30 28 23 22 21 23 24 25 30 28 30 30 29 24
45 49 47 44 43 44 42 43 44 41 41 39 39 38 36 35 35 37 35 34 34 33 34 32 32 31 31 27 24 23 21 23 20 21 21 19 18 19 16 20 26 27 27 27
48 47 42 42 40 44 44 43 42 42 42 40 38 36 34 33 34 32 32 33 34 33 31 29 29 29 29 28 25 19 17 18 18 20 15 15 10 14 14 10 8 12 19 24
43 42 40 44 44 43 42 40 38 36 36 35 35 33 32 32 32 33 34 32 33 31 29 28 26 27 28 29 28 25 25 21 19 12 11 11 10 12 9 7 6 8 12 16
39 41 43 40 39 38 38 37 34 33 33 32 32 31 31 30 31 34 34 31 25 25 26 27 26 26 30 31 30 29 25 22 17 16 17 13 11 9 11 9 8 9 11 9
37 36 35 34 35 35 35 35 33 32 32 31 30 30 31 29 26 29 27 21 16 19 24 26 23 31 29 30 29 26 21 20 19 21 16 13 9 8 8 12 10 9 7 3
38 38 39 38 36 34 33 33 31 30 29 30 28 27 30 28 26 28 20 18 15 23 25 22 22 29 27 30 28 26 23 17 17 14 13 9 9 9 5 6 8 7 4 8
39 38 37 37 36 34 33 33 31 28 31 32 31 28 29 30 27 24 23 26 23 20 24 21 28 28 27 24 27 24 23 17 16 21 11 7 4 4 2 0 5 2 1 7
35 36 35 33 32 28 30 30 28 29 31 29 33 31 30 32 30 22 24 24 25 26 26 27 28 26 25 25 25 24 20 21 21 14 3 5 0 -0 -2 1 5 3 -2 3
32 32 30 28 29 29 27 27 25 27 30 25 31 32 31 32 26 24 20 25 27 24 28 28 26 25 27 26 26 25 25 24 23 12 6 6 4 1 -3 -6 -4 -1 -1 1
32 29 27 27 26 28 30 27 26 25 26 31 34 32 32 28 25 24 27 27 28 28 27 26 26 26 26 27 25 25 25 25 24 14 6 7 6 5 0 -4 -3 -0 -1 1
31 30 29 26 26 30 30 28 28 27 27 29 32 31 31 27 26 22 22 26 25 27 26 24 26 27 28 25 24 25 25 25 24 20 8 9 10 9 2 -0 -4 -1 -2 -1
30 29 29 29 25 24 25 30 29 28 25 27 25 30 28 23 22 23 23 26 25 23 19 25 27 26 26 24 24 24 25 25 25 13 13 6 2 5 3 -2 -2 -4 -5 -4
27 28 27 24 26 30 30 30 29 29 26 26 27 28 27 27 26 21 20 20 22 20 20 25 25 22 22 25 25 23 22 21 25 17 8 6 6 5 4 -2 -0 0 -4 -5
29 30 30 29 29 31 30 30 30 32 31 31 25 25 25 25 24 25 28 28 22 22 23 25 25 24 20 17 22 24 24 19 18 18 14 14 10 13 12 8 4 6 5 3
26 24 26 29 29 27 29 33 32 32 33 32 32 23 26 28 28 27 27 26 25 25 19 23 23 24 25 19 12 13 15 20 17 17 16 16 11 12 14 12 11 10 4 3

GFSNGP_sfc_temp_015.txt.gz
Temp
42 44 42 42 42 42 40 42 36 42 43 48 51 50 51 53 53 52 54 53 51 50 51 51 51 51 51 51 50 49 48 47 46 45 45 44 45 46 47 47 47 46 43 42
35 39 39 36 41 41 41 42 41 42 41 52 51 51 51 51 51 50 49 47 49 50 51 50 49 49 48 48 47 46 45 45 45 44 45 46 46 46 45 44 43 41 40 39
32 35 35 32 40 41 43 45 44 39 48 48 48 49 50 51 50 45 44 46 46 48 49 48 48 48 46 46 46 45 44 45 45 45 45 44 44 43 41 40 41 40 39 39
32 32 29 44 48 48 44 46 46 45 46 48 50 52 51 48 44 42 43 43 47 49 48 48 48 47 45 45 45 44 44 44 44 43 42 41 41 40 40 40 39 38 38 38
30 32 36 43 46 45 42 43 49 46 48 50 52 50 48 44 45 43 43 47 50 50 48 47 46 46 45 45 44 44 43 43 42 41 40 40 39 38 38 38 37 37 37 36
31 28 27 40 47 49 48 38 48 48 47 47 47 36 44 42 43 45 48 51 49 49 47 46 47 46 44 45 43 41 42 42 41 40 39 38 37 37 37 37 36 36 34 35
32 29 34 44 46 48 34 38 45 47 48 46 42 39 40 42 45 48 49 49 50 47 45 45 46 46 43 42 41 43 42 41 40 39 38 38 37 37 37 36 34 31 30 31
30 27 27 47 46 40 46 47 48 48 46 44 41 41 41 44 45 47 47 48 48 45 44 46 46 44 43 43 45 44 41 39 39 38 38 37 37 37 36 35 32 30 29 30
37 37 46 48 49 51 49 44 45 44 41 41 39 41 45 44 46 46 46 47 46 44 43 44 45 44 42 44 43 41 40 39 39 38 37 37 36 35 34 34 31 30 30 29
39 46 48 49 53 47 47 43 43 43 43 44 42 44 44 45 45 45 45 44 44 43 42 42 45 43 43 43 42 40 39 38 38 37 36 37 36 35 34 32 30 29 28 27
39 46 48 48 46 45 43 43 43 45 44 44 44 44 45 44 43 43 42 43 42 41 41 42 43 41 42 41 40 38 37 37 36 35 34 34 34 34 32 32 30 28 28 28
39 49 46 44 43 44 42 43 45 44 44 46 45 43 43 42 42 41 40 41 40 41 40 40 40 39 39 38 38 37 36 36 34 33 33 33 33 32 32 29 29 29 29 27
47 49 46 43 44 45 45 45 46 45 45 43 44 42 41 39 39 39 40 40 39 39 38 38 37 36 36 33 32 31 32 31 33 30 32 31 30 29 27 30 27 27 27 26
48 47 41 43 42 45 46 46 45 45 45 43 41 40 39 38 38 39 39 39 39 37 37 35 34 33 34 35 32 29 29 24 31 32 31 30 29 28 27 25 23 24 25 24
43 45 43 44 45 45 45 44 42 41 41 40 40 38 38 37 37 37 38 38 37 36 36 33 31 32 34 34 32 30 30 32 30 30 29 27 27 27 27 25 24 24 24 24
42 43 43 42 42 42 42 42 40 40 40 39 38 37 37 35 33 33 36 35 30 32 31 28 29 31 33 33 32 32 32 28 26 30 30 28 28 26 26 25 24 23 21 20
39 38 39 39 39 39 39 40 39 38 38 36 35 32 32 31 31 30 31 30 26 24 27 28 30 33 33 34 33 33 31 31 24 31 29 28 26 25 25 24 23 22 21 19
43 42 41 39 38 37 37 37 36 35 34 36 33 32 32 29 29 30 31 29 26 26 28 30 28 30 31 32 31 30 29 28 29 28 28 27 26 25 24 23 22 21 21 21
41 39 39 38 37 36 35 35 34 34 32 31 29 30 33 32 32 32 32 27 26 27 30 29 30 31 30 30 30 30 28 28 29 29 27 23 25 25 23 22 22 22 20 20
38 38 37 37 35 32 32 32 31 32 33 31 28 28 31 33 34 33 30 27 30 31 31 31 31 30 29 29 29 30 28 28 28 29 26 25 24 24 23 18 20 21 21 20
34 35 32 30 30 30 28 29 28 29 32 30 25 28 30 33 33 31 27 28 32 30 30 32 32 31 31 31 31 30 28 29 29 29 27 25 23 24 23 22 21 21 21 21
34 32 29 28 28 29 31 31 31 28 28 28 28 30 32 32 32 30 28 30 33 30 32 33 33 31 31 30 31 29 29 29 30 29 27 26 25 24 24 22 21 21 21 20
33 32 31 28 27 31 30 30 29 28 28 29 29 29 30 32 33 30 30 32 32 29 32 32 30 31 31 31 30 30 29 29 29 29 28 25 24 24 23 23 22 21 21 20
32 32 32 31 28 27 28 33 33 32 30 30 31 29 29 31 31 31 32 30 25 27 30 30 31 31 27 31 30 30 29 29 29 30 28 21 24 23 22 21 20 22 19 16
30 30 29 27 29 31 31 32 31 33 33 33 34 33 31 32 31 32 30 30 28 29 31 25 30 29 29 30 29 29 28 28 28 29 27 26 25 24 24 22 20 20 20 19
32 32 32 30 30 32 32 31 30 32 33 32 34 33 32 31 31 31 30 31 31 29 31 30 31 30 30 29 28 27 28 28 28 27 26 26 26 24 24 23 21 20 19 19
30 25 30 31 33 34 33 31 31 31 32 32 32 33 32 31 31 31 31 31 31 31 30 30 30 30 30 29 28 27 26 27 24 25 26 26 25 25 24 24 23 22 21 18

GFSNGP_sfc_temp_018.txt.gz
Temp
53 54 54 51 50 52 49 49 42 48 51 57 59 59 60 60 61 60 61 59 58 58 56 59 59 58 58 58 57 56 55 54 50 49 48 49 51 52 52 52 51 50 49 48
43 50 51 46 52 52 50 51 52 52 50 60 60 59 57 58 59 57 56 54 54 54 56 57 56 56 56 56 55 55 54 52 52 52 52 52 51 50 50 50 50 49 47 47
37 45 43 37 46 50 51 54 52 46 54 58 56 55 56 57 57 53 51 52 53 54 56 56 56 56 55 55 55 53 52 52 51 51 50 49 50 49 48 47 47 46 46 45
36 37 32 48 57 57 52 54 57 56 56 55 57 58 60 57 52 46 46 53 55 56 57 57 57 57 56 56 54 52 51 50 50 49 48 48 48 47 46 46 45 45 44 43
32 37 45 50 52 50 48 48 57 54 55 57 57 58 57 49 45 43 51 56 57 58 57 56 56 57 55 54 54 52 49 49 48 48 47 47 46 45 45 45 44 44 43 42
35 30 30 48 54 55 54 43 54 54 51 48 48 41 48 43 47 52 56 57 56 57 57 56 57 56 53 53 53 50 50 48 49 48 47 46 45 44 45 45 43 42 40 40
35 33 41 54 54 55 37 42 52 51 46 45 42 40 42 46 51 56 56 56 57 57 56 56 56 54 51 52 51 52 51 50 49 48 47 46 45 45 45 43 40 36 33 34
34 30 30 56 54 42 50 54 53 51 45 42 42 44 46 50 53 54 55 56 56 55 55 56 56 54 52 52 55 53 51 49 48 47 46 45 45 45 44 42 38 34 32 33
45 45 57 59 56 59 58 53 48 44 44 48 48 49 51 52 53 55 55 55 55 53 52 54 55 54 51 52 52 50 47 45 46 46 45 45 44 42 40 40 34 32 32 31
45 53 56 57 59 57 53 44 44 48 50 50 49 50 51 53 55 54 54 52 52 51 50 50 52 50 49 49 48 47 45 43 46 44 43 44 43 41 40 35 31 31 30 30
48 52 54 56 51 49 45 45 48 51 51 51 51 51 52 52 52 52 50 51 50 49 48 48 49 48 49 47 46 45 44 43 43 42 41 41 40 40 37 36 32 30 30 30
42 52 47 44 47 45 44 49 50 50 50 53 53 51 51 50 51 50 49 49 48 48 48 48 47 45 46 45 43 41 40 41 41 40 39 38 38 37 33 30 29 29 28 28
46 51 50 45 45 49 49 50 51 52 53 51 52 51 49 48 49 46 48 48 48 47 46 45 44 42 43 39 37 35 36 37 39 35 36 35 35 33 31 34 30 28 27 27
51 52 45 44 45 50 51 52 52 53 54 53 50 50 50 48 48 48 48 48 47 46 45 43 40 40 40 41 37 34 34 30 34 35 35 34 33 31 31 29 28 30 30 27
48 51 49 50 51 51 53 52 50 50 50 49 50 48 48 45 45 45 45 44 43 42 41 41 39 36 39 37 35 35 35 36 34 33 32 31 31 31 30 29 30 30 30 29
48 50 50 48 48 49 49 49 46 46 47 47 45 44 45 45 44 43 39 37 33 33 34 32 31 34 36 38 38 37 36 31 32 32 32 32 31 30 30 29 30 29 28 26
44 43 45 44 45 45 46 46 45 45 43 42 41 39 40 37 35 35 37 35 33 31 31 31 32 36 36 37 36 36 35 35 30 33 32 32 30 30 29 29 29 28 28 25
48 48 48 47 45 44 43 43 41 40 40 40 35 34 33 33 33 34 34 34 32 32 32 33 33 35 34 36 34 35 35 33 33 32 32 31 30 30 29 28 29 28 27 27
48 47 47 45 45 43 41 41 39 37 34 34 33 32 33 32 33 34 34 32 32 30 35 33 31 32 34 33 33 34 33 32 32 32 32 30 30 30 29 28 28 28 27 27
46 47 46 44 42 38 36 36 34 36 37 35 33 32 32 32 33 33 34 32 34 35 34 34 34 34 33 34 31 34 32 31 32 31 31 30 29 29 29 27 26 27 27 26
41 42 38 35 35 34 33 33 32 33 35 33 31 31 31 32 33 33 32 33 36 33 33 33 35 37 38 35 34 33 32 31 31 31 31 30 29 29 29 28 27 27 27 26
41 38 34 34 34 34 36 36 35 33 32 32 32 32 31 32 33 34 34 33 38 32 36 36 38 35 36 32 34 32 32 32 32 31 31 30 30 29 28 28 27 27 27 26
40 39 37 34 33 36 35 34 33 32 32 32 32 32 32 34 34 32 33 35 38 34 36 36 34 32 32 32 32 32 31 31 31 31 31 30 30 29 29 28 28 27 27 27
39 39 38 36 34 33 33 38 36 35 34 34 34 34 33 33 34 38 36 33 32 32 33 34 32 32 32 33 32 32 31 31 31 31 32 30 30 29 29 28 27 28 27 25
36 37 36 33 35 40 39 39 36 36 36 35 34 36 36 36 32 34 34 33 32 32 33 32 31 32 31 31 31 31 31 30 31 30 30 31 30 30 30 29 28 27 27 26
39 40 41 39 38 39 39 39 35 36 35 33 34 34 34 34 35 33 33 33 34 34 33 33 32 32 32 32 31 30 30 31 30 30 30 30 30 30 30 29 29 28 27 27
40 35 38 39 42 41 39 37 33 33 34 32 32 34 34 34 33 33 32 33 33 33 33 33 33 32 32 32 31 31 30 30 30 29 29 29 29 29 29 29 29 29 28 27

GFSNGP_sfc_temp_021.txt.gz
Temp
57 59 59 57 56 57 54 55 46 51 54 60 63 62 63 65 65 64 63 63 63 61 61 62 63 62 62 61 61 61 58 58 56 55 54 53 53 52 53 53 53 53 51 51
47 57 57 52 57 57 57 56 56 56 54 65 65 66 63 62 61 58 60 60 56 57 60 61 61 61 60 60 59 59 57 56 57 54 52 51 51 51 52 51 51 51 49 49
41 50 47 39 51 55 56 58 56 48 57 64 61 60 56 56 57 58 56 52 51 57 60 61 61 61 59 60 60 59 56 57 54 51 50 50 51 51 50 49 49 48 48 48
37 38 33 53 63 62 57 58 61 60 61 62 59 58 61 58 53 53 51 52 57 60 60 61 62 62 61 61 59 58 57 55 53 51 49 50 51 50 49 49 47 47 46 46
35 40 47 53 55 54 51 51 61 59 60 60 59 57 58 54 54 55 55 58 60 61 61 62 62 62 61 59 58 57 56 55 53 50 50 50 49 48 48 47 46 46 46 43
38 32 32 50 59 60 59 44 59 58 56 54 54 42 48 48 53 56 58 61 61 62 61 61 61 60 59 58 57 55 56 55 53 51 50 49 49 47 48 47 46 45 42 40
37 34 43 58 59 60 40 44 56 55 50 47 42 45 49 51 56 59 60 60 62 61 60 60 60 59 56 56 55 56 57 55 53 51 48 50 48 48 47 46 44 40 36 38
38 33 31 61 58 43 52 55 53 52 48 43 48 51 53 55 56 58 59 61 61 59 58 58 59 57 56 55 57 56 54 52 48 43 46 49 47 47 46 44 41 37 33 34
48 47 61 61 58 60 58 55 53 49 48 51 52 53 54 55 57 58 59 59 59 57 55 56 56 56 53 53 54 51 49 46 44 46 46 47 45 44 44 43 39 33 33 32
49 57 58 58 59 55 56 52 51 49 54 54 52 53 54 56 57 57 58 56 57 55 53 52 54 54 53 52 48 47 44 45 45 44 44 46 45 45 43 39 34 33 32 31
50 57 56 55 51 49 51 50 52 55 55 54 54 54 55 55 55 55 54 55 54 52 52 52 53 52 52 48 47 44 44 44 44 44 43 41 42 43 40 38 34 32 32 30
43 53 47 46 47 48 50 53 54 53 54 56 56 54 54 53 54 54 52 53 53 53 52 52 51 49 46 46 44 41 39 41 42 42 41 38 39 38 34 32 31 30 29 28
55 55 53 48 49 54 53 53 55 54 55 54 56 55 54 52 53 50 53 52 51 50 50 49 46 43 44 42 41 37 36 36 37 36 35 35 35 34 31 35 30 31 28 28
57 52 45 49 51 54 54 55 55 56 57 55 54 54 53 51 51 50 50 51 50 48 46 44 43 41 42 41 40 36 36 33 35 34 34 34 33 32 32 31 29 32 28 28
51 52 53 54 54 55 56 55 53 52 52 51 52 50 49 47 47 48 50 49 46 41 40 41 40 40 40 39 38 38 36 36 34 33 33 33 33 32 32 31 31 32 33 32
54 54 54 51 51 53 53 52 50 49 49 48 47 45 46 46 45 45 45 44 37 35 35 33 32 36 38 40 40 40 40 33 33 34 33 33 32 31 31 30 31 31 31 29
48 47 48 47 49 50 49 50 49 47 45 44 44 41 39 38 37 40 40 39 35 33 33 33 32 38 38 38 39 38 36 36 33 34 33 33 32 31 31 30 30 30 30 27
53 52 52 51 49 48 47 46 44 44 42 42 36 34 33 33 34 34 35 35 34 33 34 35 34 36 37 38 37 36 34 33 33 33 33 32 32 31 30 30 29 29 30 30
52 50 51 50 50 46 44 44 43 40 36 35 34 33 34 33 35 35 35 33 33 33 36 36 33 33 36 36 34 36 33 32 32 33 33 32 31 31 30 30 30 29 29 29
49 51 50 48 46 41 39 40 36 39 40 38 34 33 33 33 33 33 33 32 34 37 36 37 35 35 36 36 32 36 33 32 32 32 32 33 31 31 30 30 30 29 29 28
44 45 43 39 39 37 34 34 33 35 38 34 33 32 32 33 33 33 33 35 38 35 36 35 36 39 40 37 35 34 33 32 32 32 32 31 31 31 30 30 30 30 29 28
45 42 35 35 36 37 38 38 38 35 34 33 33 33 33 33 33 34 34 34 39 33 36 36 38 36 38 33 37 33 33 33 32 32 32 32 31 31 30 30 29 29 29 29
44 43 41 36 34 39 39 36 34 33 33 33 33 33 33 36 36 33 33 38 37 35 36 36 35 33 33 32 32 33 32 32 32 32 32 32 32 31 29 29 29 29 29 29
43 43 42 41 37 36 34 41 42 39 34 34 34 34 34 33 34 36 38 36 33 32 33 35 33 32 32 32 31 32 32 32 32 32 32 32 32 31 31 29 29 29 29 28
41 41 40 36 37 40 44 44 42 41 39 40 38 38 36 37 33 34 34 34 33 33 34 33 32 32 32 32 31 32 32 32 32 31 31 31 31 31 31 31 30 29 29 29
42 43 44 44 43 44 44 43 41 40 38 36 37 36 35 35 35 34 35 34 34 35 34 33 32 32 32 32 32 32 32 32 31 31 31 30 30 30 31 31 31 31 29 29
44 39 43 43 44 45 44 42 36 35 35 33 33 34 36 35 34 34 34 33 33 33 33 33 33 32 33 32 32 33 32 32 31 31 31 30 29 29 29 29 30 31 31 30

GFSNGP_sfc_temp_024.txt.gz
Temp
57 59 59 57 56 57 54 54 44 50 53 59 61 61 62 60 61 60 61 61 59 57 57 59 60 60 60 59 58 58 56 55 52 52 51 49 48 48 48 48 48 47 46 45
46 58 57 51 55 55 56 57 56 54 54 64 65 61 59 60 60 59 56 56 56 55 57 59 60 59 60 58 57 57 55 54 55 52 51 49 48 47 47 46 45 45 43 43
39 47 45 38 49 56 57 59 56 46 56 63 57 57 56 56 56 54 54 53 54 56 58 59 58 60 58 58 58 56 55 56 55 51 50 48 48 48 45 43 43 42 42 42
36 37 32 54 62 61 56 58 60 59 60 58 56 57 60 56 52 52 53 55 56 58 58 59 59 59 59 59 57 56 54 52 55 50 49 48 47 46 44 42 41 40 40 40
35 39 46 52 56 54 50 49 59 57 56 56 57 55 55 54 53 52 54 56 58 60 59 59 59 59 57 56 57 56 55 51 47 50 49 47 46 43 42 41 40 40 41 37
37 31 32 49 59 61 59 41 56 55 52 51 51 38 44 53 53 56 58 59 59 60 60 58 58 57 55 54 54 53 51 50 51 51 49 46 44 42 42 42 42 38 36 35
37 34 41 56 60 60 40 41 52 52 50 48 44 45 51 55 56 58 59 59 60 59 57 57 57 55 52 52 51 53 52 51 49 47 42 41 40 43 43 39 36 33 31 32
38 34 32 61 58 42 50 54 53 51 50 47 50 52 54 55 55 57 57 58 58 56 55 56 56 54 52 50 52 51 49 47 46 45 43 43 41 41 40 37 34 31 27 29
45 43 56 58 55 55 54 51 49 49 51 51 52 52 53 53 55 56 56 55 56 54 52 53 54 54 50 50 50 47 45 44 43 43 42 42 38 39 36 36 30 29 29 28
49 56 59 56 55 54 53 50 51 52 54 54 51 52 53 54 54 54 54 53 54 52 51 51 53 53 51 48 47 45 42 41 42 41 41 41 40 39 35 31 29 31 29 26
51 57 56 52 52 51 52 52 52 56 55 54 53 52 53 53 53 53 52 53 52 51 50 49 51 50 49 47 45 41 40 39 38 37 37 36 36 35 32 31 29 27 25 25
44 53 53 50 51 52 51 52 54 53 53 55 54 52 52 51 52 52 50 51 50 50 49 48 48 46 45 45 43 38 34 35 34 34 34 33 34 34 35 32 32 32 30 24
54 55 53 52 51 54 54 54 55 54 54 53 53 52 51 49 50 47 49 49 48 48 47 45 43 42 44 40 37 34 33 34 34 34 32 33 33 32 29 33 33 32 31 29
58 53 47 51 50 55 55 55 55 55 55 53 52 51 50 48 47 47 46 47 48 47 45 42 40 38 39 40 36 33 33 33 33 33 32 31 30 31 30 29 27 28 30 29
54 55 52 52 55 55 56 54 52 51 51 50 50 47 46 44 43 44 45 45 44 42 42 40 37 36 38 37 35 35 34 32 32 32 31 30 30 30 30 29 28 28 28 27
54 55 54 53 52 52 52 51 49 48 48 47 44 41 43 42 42 41 42 40 34 34 36 34 33 34 36 37 36 36 35 32 31 32 31 31 30 29 29 29 28 28 26 24
48 47 49 47 49 49 49 50 47 45 44 41 40 38 37 36 34 36 36 35 34 34 34 34 33 36 35 36 35 35 34 33 32 31 31 30 29 29 29 28 28 27 26 22
54 53 53 51 48 47 46 44 41 41 39 39 34 31 29 29 32 32 34 35 34 34 35 34 34 34 34 35 34 33 32 31 31 31 31 30 30 30 29 29 28 27 27 24
52 51 51 50 49 44 42 40 40 37 33 33 32 32 32 31 34 33 33 32 32 33 35 34 33 32 34 34 34 31 32 31 31 30 31 31 29 30 29 29 29 26 26 25
49 50 49 47 44 39 37 38 34 37 38 35 30 31 32 33 33 33 33 31 33 35 36 34 33 32 32 33 29 32 32 31 30 30 31 31 31 30 30 29 28 28 28 27
41 42 40 37 36 35 33 33 31 33 35 31 30 31 31 32 34 34 32 32 36 33 35 34 34 34 35 34 33 31 31 31 31 30 31 31 31 31 30 30 29 29 28 27
42 39 33 34 34 36 36 36 37 33 32 31 30 31 31 32 33 34 35 33 37 34 34 34 34 34 35 29 32 31 30 32 31 30 31 31 31 30 29 29 28 28 29 27
40 40 38 35 33 37 38 35 33 33 33 33 31 33 33 33 34 32 31 36 35 34 33 34 34 34 33 32 31 31 29 30 31 31 31 31 31 31 29 29 28 28 27 27
40 40 39 38 35 35 34 38 38 36 33 33 33 34 33 33 34 36 37 34 34 33 33 33 33 33 32 32 31 31 30 30 31 31 31 31 31 31 31 29 26 29 28 28
37 38 38 35 36 37 38 40 39 38 36 38 36 36 36 35 33 35 34 34 33 33 33 33 32 31 32 31 31 31 30 31 32 31 31 30 29 30 30 31 30 29 27 27
39 40 41 40 40 41 41 41 39 39 37 34 35 34 34 34 35 35 34 33 34 33 33 33 33 33 32 31 31 31 31 31 31 31 30 30 29 28 28 29 29 30 30 28
41 37 40 41 43 42 42 40 37 35 35 33 33 34 34 34 34 34 34 33 33 33 33 33 33 33 32 32 31 32 32 32 31 31 30 29 27 28 28 28 28 28 28 29

GFSNGP_sfc_temp_030.txt.gz
Temp
44 46 46 45 44 44 43 41 34 39 40 44 46 46 47 48 49 48 48 48 49 48 47 48 49 49 49 48 47 48 48 47 44 44 44 44 42 42 42 43 43 41 41 40
38 43 43 40 44 43 44 45 45 43 40 47 48 47 46 46 46 45 46 47 47 48 49 50 50 48 47 47 47 48 47 45 45 45 45 42 41 42 41 40 40 40 40 38
30 36 36 30 40 45 46 46 45 37 42 45 44 44 43 42 44 44 44 45 46 48 48 47 46 47 45 46 47 45 44 44 43 43 41 41 41 41 41 39 38 38 37 36
24 27 21 42 50 50 44 44 46 45 44 45 44 43 43 45 43 43 44 46 47 46 46 45 45 45 45 46 45 43 43 42 42 41 40 40 40 39 37 37 35 35 35 33
22 25 34 43 47 46 43 40 46 44 44 44 45 43 41 46 45 43 44 45 45 45 45 44 45 45 44 43 42 42 41 41 41 40 39 38 37 37 36 36 35 35 34 31
25 21 19 37 48 52 49 32 46 45 42 42 42 30 36 43 44 46 46 46 45 45 45 43 43 43 42 40 40 39 40 40 40 39 38 36 36 37 36 36 34 33 31 30
17 17 29 43 50 52 32 35 44 44 42 41 38 38 42 43 45 46 45 44 45 43 42 42 43 42 40 38 38 40 40 40 39 38 36 36 36 34 34 33 30 28 26 27
24 18 24 48 48 39 41 42 43 43 42 41 41 42 43 45 45 45 44 44 43 41 41 42 42 41 37 36 39 40 39 37 36 35 36 37 36 34 32 29 28 25 14 19
36 34 44 47 47 46 46 43 43 42 43 45 44 44 44 43 43 43 42 41 43 40 40 41 41 40 38 38 39 38 35 34 33 33 34 33 33 31 30 28 22 22 23 16
38 45 46 46 45 45 46 44 47 47 47 46 44 43 41 41 41 40 40 40 40 39 38 38 39 39 37 38 37 35 33 32 31 30 31 31 31 31 27 21 19 23 20 18
37 42 44 45 44 45 45 47 49 49 49 45 43 41 41 40 39 39 39 39 39 38 37 37 38 37 37 37 36 33 33 32 30 28 28 28 29 28 26 25 23 20 19 18
34 45 44 43 44 46 46 48 49 47 44 43 43 41 40 38 38 37 37 38 37 37 37 36 36 36 36 36 36 32 32 30 27 25 24 27 27 28 32 31 33 33 32 19
46 47 47 44 45 50 50 49 48 45 43 41 41 40 39 37 37 37 37 37 36 36 35 34 33 33 34 33 31 30 31 31 26 27 26 25 28 26 22 27 32 32 32 32
48 46 42 43 44 50 50 48 47 45 43 41 40 39 38 36 36 35 35 35 36 34 34 32 33 33 36 36 34 31 32 25 25 28 26 23 22 26 26 23 13 18 26 30
46 46 46 49 50 48 48 46 43 41 40 39 39 36 36 34 33 33 34 34 32 32 33 35 34 35 36 34 32 31 32 24 20 25 25 27 27 26 26 24 20 22 16 21
46 48 49 48 46 45 45 43 40 39 38 37 35 34 34 33 32 32 32 32 29 30 31 30 31 34 34 34 33 32 32 26 24 24 21 26 26 25 26 22 23 22 19 14
44 41 42 41 41 41 41 40 39 38 36 34 33 33 32 30 28 30 30 29 26 26 29 29 31 35 34 34 32 31 30 26 29 29 27 25 22 25 25 24 21 22 21 16
47 46 45 43 41 40 38 36 35 34 34 33 27 20 18 20 26 27 27 26 24 27 30 30 30 33 34 33 32 30 25 23 24 19 25 20 23 24 25 20 21 20 18 15
43 41 42 42 40 37 35 34 34 32 27 24 21 23 22 22 26 27 26 21 23 26 31 27 31 32 33 32 28 22 19 16 18 22 25 24 18 21 25 25 21 25 20 16
42 42 41 40 38 35 33 34 28 31 32 26 19 16 23 25 24 23 22 22 28 31 30 30 32 32 32 31 27 22 16 13 18 19 20 20 14 16 23 22 23 19 21 20
36 37 36 32 31 29 26 26 23 28 31 24 21 26 26 27 23 20 21 27 31 27 29 26 32 31 33 31 28 27 27 21 19 20 21 18 17 18 23 21 20 21 17 10
35 33 28 27 28 31 31 30 31 27 26 27 30 24 25 26 23 21 23 27 33 26 28 31 32 32 32 32 30 29 28 26 25 24 23 23 26 22 18 22 23 22 21 16
35 34 33 27 25 32 32 30 28 27 27 27 27 26 30 27 25 24 27 30 29 28 31 32 33 33 32 32 32 30 28 27 24 23 23 22 22 25 26 24 22 25 25 24
34 34 34 33 28 27 29 34 33 32 29 29 28 27 28 26 22 26 28 27 28 30 33 33 33 33 33 32 31 31 29 27 27 27 25 22 23 27 26 21 20 22 22 22
31 33 33 27 31 31 33 33 31 30 30 31 30 30 31 31 28 27 22 23 27 32 33 34 33 33 32 32 31 30 29 29 29 29 28 26 27 27 27 24 21 22 23 23
33 31 31 33 32 31 31 29 28 28 27 28 24 26 31 30 28 25 22 22 25 25 31 31 32 32 32 32 32 32 31 30 30 29 29 28 28 28 26 23 22 21 21 22
31 26 30 30 31 31 30 29 30 32 30 32 32 29 28 29 26 21 22 22 27 25 23 26 29 29 30 31 32 32 32 32 31 30 30 29 29 28 25 23 22 21 20 21

GFSNGP_sfc_temp_033.txt.gz
Temp
41 42 43 42 43 42 41 39 34 37 38 42 44 43 44 45 45 45 45 45 47 47 47 47 46 45 45 45 45 45 44 43 42 42 42 41 40 40 40 39 39 39 39 39
36 40 40 38 43 42 41 41 41 38 37 44 45 45 44 44 44 44 45 46 47 46 46 45 45 44 45 44 44 44 43 42 42 42 41 40 39 39 38 37 39 39 35 35
29 34 34 29 39 43 44 44 42 34 41 43 42 43 41 41 43 43 45 43 43 43 44 44 44 45 43 44 44 42 41 42 41 40 39 39 39 38 37 36 39 34 34 36
24 26 21 41 46 46 44 42 42 41 43 44 43 42 43 43 42 42 42 42 44 43 43 42 42 43 43 43 41 41 40 40 40 39 38 37 37 35 33 33 35 35 33 33
22 25 34 42 44 42 41 40 44 42 42 42 42 41 39 44 43 42 44 43 43 43 43 42 42 42 41 40 39 39 39 38 38 38 37 36 34 35 36 35 35 32 32 31
25 19 19 37 44 49 47 33 44 43 41 40 39 29 36 42 44 43 44 43 43 42 42 41 40 39 39 38 37 37 38 38 38 37 35 34 33 33 36 35 31 31 31 29
16 18 29 41 48 49 33 35 42 44 42 40 37 38 41 44 44 44 43 42 42 40 39 39 40 40 38 36 36 38 38 37 36 35 33 33 35 37 35 31 30 26 25 26
23 19 26 45 45 39 42 41 44 42 42 40 43 43 43 44 42 42 41 40 40 39 38 39 39 38 36 34 37 37 37 35 34 33 33 34 35 34 30 28 28 26 13 18
35 34 43 45 44 45 45 43 42 42 43 45 44 43 44 41 40 40 39 39 39 37 37 38 38 37 35 36 36 35 34 33 32 32 32 31 33 32 29 27 22 21 22 15
37 43 43 45 44 44 45 43 44 46 47 46 44 42 40 39 38 38 38 37 37 36 35 35 37 37 35 36 35 34 34 33 34 31 30 30 33 32 27 21 18 22 19 18
35 42 42 44 44 44 44 45 47 47 46 45 42 41 40 38 37 37 36 36 36 35 34 34 35 35 35 35 34 33 33 34 32 30 28 28 30 28 28 26 24 21 19 19
35 44 43 43 44 44 43 45 46 46 44 44 43 41 39 37 37 36 35 36 35 34 33 33 33 32 33 35 35 33 30 32 31 27 24 27 27 28 32 30 32 33 32 19
44 46 45 43 43 46 46 47 48 45 44 41 41 40 38 36 36 36 35 34 33 32 32 31 30 30 32 32 33 32 31 32 31 28 28 28 27 28 25 29 31 31 32 32
47 45 40 42 42 47 48 46 46 44 43 41 39 38 37 36 35 33 32 33 33 32 31 30 30 31 34 34 33 32 31 29 28 29 29 28 20 25 26 22 14 16 26 29
44 45 45 46 46 45 46 45 41 40 39 38 38 36 35 33 33 32 31 32 31 30 31 31 30 31 34 34 33 32 31 29 28 19 20 24 24 23 24 23 17 19 15 19
44 45 46 44 43 43 41 39 38 38 38 36 35 34 34 33 32 31 31 31 28 28 29 27 26 31 33 34 33 33 32 30 27 27 27 23 24 21 22 23 23 23 14 14
40 38 40 39 39 39 38 41 39 38 36 34 34 33 32 29 27 30 30 28 23 23 26 27 28 31 33 34 33 33 30 30 29 28 27 24 21 20 22 24 23 18 18 12
43 41 40 37 35 37 37 36 36 35 35 34 27 20 19 23 26 26 26 24 22 23 26 29 28 31 32 33 33 32 28 28 23 21 21 17 19 20 21 21 23 20 19 16
40 39 39 39 40 37 36 35 35 33 28 25 23 25 23 23 25 26 23 19 21 23 29 27 29 28 31 32 32 30 26 21 19 20 19 18 14 18 19 20 22 21 23 20
40 41 40 39 37 35 33 35 28 31 33 27 20 18 23 25 23 22 19 22 27 29 29 29 27 29 31 32 31 30 26 21 18 18 14 16 15 14 14 17 20 21 15 17
35 35 34 32 31 28 26 26 24 28 31 23 19 23 24 27 22 21 22 24 29 26 28 26 27 31 32 32 32 30 28 26 26 21 19 19 19 17 16 17 18 18 18 16
34 33 28 27 28 30 30 30 30 25 25 25 24 27 28 27 28 21 21 25 30 24 26 26 28 31 32 32 32 31 30 28 27 27 24 22 23 23 21 19 18 23 23 21
33 34 33 28 26 32 31 29 25 24 24 25 26 26 26 29 29 26 27 28 28 25 27 30 26 30 32 32 32 32 31 30 28 28 26 26 25 25 24 24 24 24 23 21
34 34 34 32 26 26 28 34 32 31 26 27 26 26 26 26 28 26 30 29 23 19 24 31 32 32 32 30 31 32 31 30 30 28 27 26 27 25 24 25 25 24 22 20
30 33 32 26 30 30 32 32 30 29 29 29 28 28 27 27 30 28 25 24 23 21 21 21 26 24 29 31 32 31 31 31 30 29 29 28 27 26 26 27 26 25 23 23
32 30 29 31 30 30 30 30 29 29 28 28 27 24 26 30 32 30 23 23 22 22 20 20 22 24 21 21 21 22 26 29 32 31 30 30 30 28 28 28 27 25 23 22
28 25 28 29 31 30 29 28 28 29 32 32 31 32 32 32 29 26 26 22 23 22 17 19 17 15 17 17 18 19 21 22 24 28 31 30 29 29 29 28 26 24 23 23

GFSNGP_sfc_temp_036.txt.gz
Temp
38 39 40 40 41 40 39 38 35 36 36 42 43 42 42 43 43 43 44 45 45 45 46 48 44 44 44 43 44 43 43 41 40 40 39 39 38 38 38 38 38 39 40 39
35 37 38 37 40 40 39 38 38 37 38 44 43 43 42 42 43 42 43 45 45 46 46 45 44 43 43 43 43 42 41 40 40 39 39 38 37 37 36 36 36 39 37 36
29 32 33 29 37 39 39 41 40 34 41 41 39 41 41 40 42 42 43 43 45 44 43 43 43 44 42 42 41 40 39 40 39 39 37 37 36 36 34 32 34 35 34 34
23 26 21 39 43 43 42 42 43 41 41 43 42 41 42 42 41 41 42 43 43 42 42 41 41 41 40 40 39 39 39 38 38 37 36 35 34 34 32 35 36 35 32 31
23 24 34 41 41 41 40 40 43 42 40 41 40 41 40 43 43 41 42 43 43 42 41 40 40 40 39 38 38 38 37 37 36 36 34 34 32 32 36 35 34 30 30 29
21 19 19 37 42 46 45 33 43 43 40 39 40 31 39 41 42 43 43 43 41 41 40 39 39 38 37 37 36 36 36 36 36 35 33 32 31 35 36 35 32 31 31 28
14 17 29 40 45 46 34 35 41 42 40 38 37 40 41 41 43 43 44 43 41 39 39 38 38 38 36 34 34 36 36 36 34 33 32 31 34 36 35 32 30 27 25 26
23 16 25 44 44 38 42 39 42 41 41 41 39 40 41 41 42 42 40 41 40 39 37 37 37 36 34 32 35 35 34 33 34 35 33 32 32 34 32 28 28 26 13 18
33 33 42 44 43 44 44 43 41 42 41 42 42 43 43 40 41 40 40 39 39 37 37 37 36 35 33 34 34 33 32 32 34 35 34 31 30 32 31 28 22 20 21 16
36 42 41 44 45 45 44 44 43 43 44 45 44 43 42 41 39 39 38 38 37 36 34 34 34 34 33 33 33 31 31 34 35 33 33 30 30 32 30 24 19 21 19 19
35 41 41 45 44 45 44 44 45 45 44 43 41 42 42 39 38 37 37 37 36 34 33 33 33 32 32 32 32 31 34 33 33 32 30 28 28 29 29 27 24 21 21 19
34 44 43 44 45 43 43 43 44 43 42 43 43 40 40 38 38 37 35 35 35 34 32 32 31 30 31 31 32 31 32 32 32 30 29 27 27 28 32 30 31 32 32 21
43 43 44 43 43 43 44 44 44 44 44 41 40 40 39 37 36 36 35 34 34 33 31 30 30 30 30 31 31 32 31 32 31 30 28 27 25 27 24 28 32 32 32 32
45 42 40 40 41 45 44 43 44 43 41 39 38 39 38 37 35 34 34 34 33 32 30 30 30 30 32 31 31 32 32 30 29 29 28 28 25 22 25 25 20 17 26 29
43 43 42 43 43 42 44 43 39 37 37 37 38 37 36 34 34 34 33 33 32 31 30 31 30 30 31 30 31 32 32 31 29 25 26 23 23 22 21 23 24 20 17 19
42 42 42 39 39 39 39 37 35 35 37 37 36 35 35 34 34 33 32 32 28 28 30 26 25 29 30 30 32 32 33 32 29 25 27 26 25 21 22 22 23 23 21 18
37 35 37 36 36 36 36 36 36 36 36 35 35 34 33 32 28 30 31 28 23 24 25 24 26 30 30 30 30 33 32 32 29 27 27 23 26 21 20 20 21 24 20 18
39 38 38 36 35 34 33 35 35 35 35 34 29 25 23 23 27 27 26 25 22 23 25 28 27 29 29 30 30 32 30 30 28 25 23 18 19 20 19 18 19 19 21 20
39 38 38 38 38 36 35 35 34 32 28 27 25 27 25 25 25 26 25 20 22 22 28 27 28 27 28 29 30 31 30 29 27 24 23 17 15 17 15 14 16 18 20 18
39 39 38 37 36 35 32 34 29 32 33 28 24 26 26 26 25 23 19 22 27 29 28 27 27 26 26 30 31 30 30 29 26 23 20 19 19 19 19 17 17 18 17 18
34 35 34 31 31 29 27 26 25 29 31 23 20 24 24 25 24 21 24 26 29 26 27 25 26 27 27 27 31 31 31 29 26 24 24 23 22 21 22 22 22 21 20 16
33 31 27 26 27 29 29 28 29 23 23 23 22 20 19 25 24 25 27 25 31 24 25 25 26 25 29 30 31 31 31 31 29 27 25 25 25 25 25 25 24 23 21 21
34 34 32 26 25 31 29 27 22 21 22 24 25 25 23 27 27 25 27 28 25 25 25 26 30 30 30 31 31 31 30 30 30 29 28 28 27 27 27 26 25 25 25 24
33 33 32 31 25 27 28 31 30 30 26 27 25 25 23 26 28 26 28 25 25 27 23 28 24 20 18 24 29 29 30 30 30 30 28 27 27 27 27 27 26 26 26 25
29 30 29 27 28 28 29 29 28 28 28 29 29 28 26 27 27 30 28 30 28 25 23 23 20 19 18 18 18 18 17 19 21 23 26 29 29 28 26 26 27 27 27 26
28 27 27 28 29 28 26 27 25 27 28 27 29 31 33 30 30 29 31 27 22 21 22 17 13 9 11 14 14 14 16 18 19 19 21 23 26 29 29 28 28 28 27 26
25 22 25 25 25 24 22 23 23 23 25 24 25 27 30 32 31 31 28 21 17 19 18 13 8 13 12 11 9 9 10 11 10 12 13 14 15 17 24 29 29 28 26 24

GFSNGP_sfc_temp_042.txt.gz
Temp
55 55 55 57 57 57 56 58 50 58 58 65 66 67 68 67 66 63 62 62 63 63 63 63 62 59 60 61 61 62 60 59 58 56 56 55 54 53 53 52 51 51 49 47
49 51 52 51 57 58 58 59 59 59 59 69 69 66 65 63 62 61 61 62 63 63 62 61 59 60 60 60 60 59 58 56 56 55 54 53 52 51 51 50 50 50 46 46
46 47 48 40 52 57 59 60 59 53 62 65 62 62 63 62 62 61 61 61 61 61 59 58 58 60 59 59 58 56 55 55 54 52 52 52 51 50 49 48 47 44 44 42
43 39 35 57 59 59 59 62 64 61 62 63 63 64 64 67 63 61 61 61 60 59 55 56 59 58 57 58 56 54 53 53 52 51 51 51 49 48 48 47 43 44 42 42
38 44 51 58 55 54 52 57 62 62 63 61 58 59 61 63 64 63 62 62 61 59 56 58 56 58 56 55 54 52 51 51 51 50 49 48 47 47 46 42 42 40 42 42
39 37 35 53 56 59 58 49 60 61 60 58 57 52 62 61 62 62 62 62 59 56 54 55 52 55 54 53 52 50 50 50 51 50 48 47 47 46 44 42 41 42 39 42
40 38 47 58 58 58 45 50 60 61 62 58 56 61 58 63 60 61 60 58 58 56 55 54 53 52 51 52 49 50 49 49 49 49 48 47 46 46 43 42 42 38 36 40
38 35 36 58 56 50 57 61 60 60 60 58 60 55 56 58 57 56 56 54 55 51 52 53 52 51 51 49 51 49 49 48 47 48 47 47 45 45 42 42 40 38 34 35
51 52 57 60 61 61 60 59 61 59 61 58 57 55 55 54 54 54 53 48 49 50 49 50 50 50 47 49 48 47 46 45 46 47 46 46 43 41 40 40 37 35 35 34
49 58 58 59 62 63 63 60 61 60 60 60 58 56 54 53 51 47 49 47 45 48 48 48 47 47 48 47 47 46 44 44 45 45 44 45 42 40 40 38 36 36 35 34
51 58 60 59 58 57 58 59 58 58 57 56 57 54 51 50 49 47 43 45 46 48 47 46 47 46 47 47 45 43 43 43 43 44 43 43 42 41 40 40 38 37 36 35
49 53 53 55 57 55 55 55 55 53 53 54 54 50 48 43 41 42 45 47 45 44 44 45 45 46 46 46 45 42 41 42 42 42 41 40 40 40 36 34 34 33 33 33
52 56 55 54 53 55 52 53 53 51 50 46 44 40 38 38 41 41 43 43 43 44 45 45 44 44 45 44 42 40 40 40 42 39 38 36 37 36 34 37 34 33 33 33
54 53 51 49 47 50 49 48 45 43 41 38 38 40 40 41 41 43 43 44 44 44 44 43 43 44 45 45 43 40 40 35 40 40 37 37 36 36 35 34 33 34 34 34
49 51 49 49 45 42 43 42 38 36 36 37 40 43 44 43 43 43 44 43 42 42 43 44 44 44 46 44 41 41 41 42 39 37 35 35 35 35 35 34 33 33 36 34
46 45 42 40 40 39 39 38 36 36 41 44 44 43 43 43 43 43 43 43 38 40 43 37 36 41 43 44 44 43 43 36 35 38 35 34 34 34 34 33 33 33 33 34
37 36 36 35 36 38 40 43 45 45 44 42 41 40 41 39 38 40 42 41 35 33 35 34 35 44 44 44 43 44 43 41 36 36 34 36 36 35 34 34 33 33 33 34
43 40 40 41 41 42 42 41 41 41 41 40 35 33 33 33 35 36 36 35 33 33 35 38 38 41 42 43 42 41 37 36 35 34 35 34 33 34 34 34 33 32 34 34
46 45 45 44 44 43 42 41 40 39 35 34 33 33 33 33 36 37 35 32 31 33 42 43 37 35 40 40 37 36 34 34 33 32 33 33 33 33 32 32 32 32 33 33
44 45 44 42 41 40 38 39 36 39 40 35 32 33 33 33 33 33 33 32 35 38 41 40 39 38 38 39 34 36 34 33 34 33 32 32 32 32 32 32 32 32 32 32
41 41 38 38 37 34 32 33 33 34 35 32 31 30 30 31 32 32 32 35 38 38 38 36 38 39 40 37 36 34 33 33 32 33 32 32 32 32 32 32 32 32 32 32
41 37 33 33 35 36 35 35 33 31 30 29 29 29 29 32 32 32 33 32 38 35 37 38 38 36 35 32 34 33 33 33 33 32 32 32 31 31 32 32 32 32 32 32
39 38 35 32 32 34 34 32 30 30 28 28 29 29 29 31 33 31 30 36 37 36 36 34 33 32 32 32 32 31 31 30 29 29 29 29 29 29 30 30 31 32 32 32
37 36 35 34 33 32 31 32 32 32 29 30 30 29 29 29 29 33 33 33 32 31 32 33 32 30 27 30 29 28 27 27 27 26 26 24 25 25 26 26 27 29 30 31
34 34 33 31 32 32 31 30 31 31 29 29 29 30 29 30 27 29 29 30 29 30 32 29 25 25 26 26 25 24 24 24 22 22 22 22 22 22 23 23 23 24 25 27
33 33 32 30 29 29 28 27 26 27 26 25 26 26 26 26 27 27 27 27 28 27 26 25 22 22 22 21 21 20 20 20 19 19 18 19 19 19 19 19 20 21 22 23
28 27 29 29 28 26 24 23 22 21 22 21 20 22 24 24 24 24 22 22 22 22 22 20 19 17 17 17 17 16 16 17 15 14 15 15 16 15 15 15 17 18 20 20

GFSNGP_sfc_temp_048.txt.gz
Temp
63 65 65 62 62 64 61 61 51 56 60 67 71 71 72 74 73 73 73 74 74 71 69 69 67 66 65 61 60 60 60 59 58 57 57 55 54 52 52 51 50 50 49 48
55 62 62 57 61 63 63 63 63 63 62 73 74 72 71 71 72 71 71 73 72 72 70 68 67 64 62 61 60 61 59 56 57 57 56 54 51 51 50 49 49 48 47 45
45 55 52 42 55 59 62 65 64 55 64 71 70 70 69 69 70 69 70 71 70 70 69 67 64 64 60 61 60 58 56 56 56 55 53 51 52 51 49 47 47 45 42 42
43 40 34 57 68 66 61 64 67 67 67 69 66 69 70 72 70 69 70 70 69 68 67 65 63 63 60 60 57 55 54 55 55 53 51 51 50 49 47 46 45 42 41 41
38 43 52 58 63 61 59 58 65 64 66 68 67 66 65 70 69 68 68 69 69 67 65 63 62 61 58 57 56 55 53 53 53 52 51 50 48 47 47 45 43 40 41 40
43 38 33 55 63 67 65 48 65 65 64 64 65 51 56 67 68 68 69 69 67 63 62 60 58 58 56 52 52 51 53 52 52 51 49 48 47 46 45 44 43 41 39 39
42 38 47 64 65 65 46 48 63 64 64 63 59 58 62 65 66 68 67 66 63 61 59 56 53 53 51 50 50 53 52 50 50 50 49 48 47 46 44 42 39 36 34 34
44 35 34 66 62 52 58 63 63 64 63 61 62 63 62 63 64 64 61 60 60 56 52 52 53 50 49 47 50 51 50 49 48 48 48 48 45 44 43 40 36 34 31 32
50 48 62 67 63 65 65 62 62 61 63 63 61 62 63 61 60 59 58 53 52 49 47 47 49 48 48 49 50 48 46 46 46 47 47 47 44 42 38 37 33 32 31 30
54 63 64 64 64 63 63 61 63 63 61 61 59 61 60 60 57 53 49 46 47 46 45 47 50 48 47 48 48 47 45 45 45 44 43 43 44 43 39 33 31 32 31 31
57 63 61 60 58 58 60 61 60 60 59 58 60 59 57 50 46 44 44 45 46 45 43 44 47 48 50 50 48 45 44 44 43 42 41 40 42 40 35 36 34 33 32 32
50 56 56 52 56 58 56 55 57 54 49 50 50 46 45 42 43 44 42 42 42 44 46 48 49 48 49 49 49 45 43 42 37 36 36 38 39 37 39 36 37 36 36 34
56 59 56 54 55 55 52 51 50 47 47 44 44 43 42 40 41 39 41 43 47 46 47 48 47 47 49 47 45 41 38 37 37 36 37 37 34 35 35 36 37 36 36 35
58 58 52 54 47 50 48 46 46 46 46 45 44 44 43 43 41 45 46 48 49 48 47 47 47 47 49 49 45 40 40 37 38 38 38 38 36 35 34 33 31 33 35 34
54 55 52 51 48 46 47 46 44 42 43 44 46 47 47 46 46 47 49 49 47 46 46 45 43 41 45 43 42 40 40 40 39 38 37 36 34 34 33 33 33 32 34 32
50 51 50 46 45 44 45 43 42 43 45 44 44 43 45 45 45 46 47 40 36 36 37 33 33 38 41 45 44 43 42 39 37 38 36 34 34 33 33 32 33 33 32 32
44 41 42 42 42 43 44 45 44 44 43 41 38 37 38 37 38 38 40 38 34 33 34 34 36 43 39 43 42 40 39 39 37 37 36 35 34 33 33 32 31 32 32 33
48 46 47 45 43 43 43 43 42 39 37 36 32 31 31 30 33 34 34 34 31 31 35 38 38 37 37 40 38 37 36 36 36 35 34 33 33 34 33 32 32 31 32 32
48 46 46 47 47 45 42 40 38 36 33 31 31 30 31 31 32 32 33 29 29 32 34 36 34 35 36 37 36 36 34 34 33 34 33 33 33 32 32 31 31 31 32 31
46 47 45 42 41 39 36 36 36 36 34 31 27 26 27 27 27 27 29 30 33 31 33 33 33 33 34 35 33 33 33 33 31 31 32 32 32 31 31 31 31 31 32 32
43 41 37 36 34 33 31 32 30 33 32 25 26 25 24 26 28 26 29 29 32 30 31 30 31 31 30 27 29 31 31 31 31 31 31 31 31 29 29 29 29 29 29 29
39 35 33 34 35 34 34 34 32 27 27 24 22 22 22 28 26 28 26 27 29 27 27 29 26 23 23 23 29 28 29 29 29 29 28 27 27 25 25 25 24 24 25 25
37 36 35 34 33 34 34 32 28 27 25 24 24 25 26 27 29 25 24 28 28 24 26 25 22 19 19 24 23 23 23 24 22 22 23 24 24 23 23 23 22 22 22 22
38 38 36 36 34 34 33 33 34 33 26 28 25 22 26 25 25 28 27 24 22 21 22 23 20 18 18 20 19 19 19 20 18 18 18 19 20 20 20 19 18 18 19 20
37 36 36 34 35 34 33 33 33 32 30 30 29 28 27 28 24 24 24 24 22 22 22 22 20 17 17 17 17 16 16 16 15 14 14 15 15 15 15 15 14 14 15 16
37 35 33 33 32 32 30 30 28 28 26 25 25 24 26 26 25 24 23 22 22 21 20 20 19 18 17 16 15 14 14 14 12 12 12 12 12 12 12 12 12 13 13 14
32 33 34 32 31 29 26 26 24 22 24 22 20 22 25 24 23 22 20 20 20 19 18 18 18 17 16 15 14 14 13 12 11 11 11 9 10 9 9 10 11 12 12 12

GFSNGP_sfc_temp_051.txt.gz
Temp
53 56 56 56 54 55 54 51 41 47 50 56 57 58 58 60 61 63 63 62 63 60 58 58 57 57 57 56 56 57 56 55 52 52 52 52 50 49 49 49 48 48 47 44
45 54 53 48 53 53 54 55 53 51 51 59 60 61 60 61 63 61 61 63 61 60 60 59 58 56 57 55 56 57 53 52 53 52 52 49 48 48 48 46 46 47 44 42
35 46 45 35 47 51 53 54 52 45 52 57 56 58 57 58 59 60 61 61 62 60 60 59 58 57 56 56 55 53 51 52 53 51 49 48 49 48 47 45 45 43 41 40
32 34 26 47 58 59 55 55 55 55 55 56 55 56 57 57 56 57 60 60 59 57 55 56 57 57 56 55 52 51 51 51 50 48 48 48 48 46 45 44 43 39 38 39
31 30 42 50 54 53 50 48 55 54 55 56 58 55 53 59 59 58 57 56 55 55 53 52 52 53 53 53 52 51 48 48 48 48 47 46 45 44 44 42 40 39 39 38
31 28 24 43 55 60 57 37 54 55 53 52 53 38 44 55 58 56 56 55 54 52 50 48 48 49 47 45 46 46 48 47 47 46 45 44 44 42 42 42 41 38 37 35
26 26 35 54 58 58 37 38 53 55 53 51 48 48 52 56 53 55 54 51 49 48 46 46 47 47 46 45 44 46 47 46 46 46 44 44 43 43 42 39 36 33 33 33
32 31 30 57 55 44 47 52 53 53 52 51 52 53 54 53 50 47 46 46 45 43 43 44 46 47 45 44 47 48 47 46 45 45 45 45 41 40 39 36 33 32 26 29
40 37 50 54 52 53 53 51 51 51 52 53 52 53 52 47 44 43 43 42 43 42 44 45 47 46 44 44 46 45 43 42 42 42 42 42 39 37 34 33 28 29 29 27
45 51 51 51 53 54 54 52 52 52 51 53 51 52 47 44 41 41 42 43 45 45 44 43 44 45 44 44 45 43 40 40 40 39 38 37 38 37 33 28 27 29 28 28
47 49 49 49 51 51 52 52 48 47 47 46 45 42 41 40 41 42 42 43 43 41 40 41 42 43 44 44 44 41 39 39 38 37 35 34 35 34 33 31 30 28 28 29
37 47 46 45 48 50 47 46 46 44 42 43 42 41 42 41 41 41 40 41 39 39 39 41 42 42 43 43 42 39 37 36 33 31 31 32 32 34 36 35 35 36 36 32
47 50 47 46 46 47 44 43 44 42 42 39 39 39 39 38 38 39 38 39 39 41 41 41 41 40 41 40 39 36 33 33 32 32 32 32 32 31 34 35 37 36 36 36
52 49 43 45 40 44 43 43 43 42 41 40 39 39 38 37 37 39 40 41 41 40 39 38 38 38 39 40 37 34 33 33 33 33 32 33 33 34 35 33 32 32 33 34
47 48 44 44 43 43 43 42 41 39 38 38 40 40 40 39 39 39 39 39 38 37 36 36 34 34 37 36 36 34 34 32 31 31 32 32 34 33 33 32 30 30 30 29
46 44 42 41 42 43 42 39 36 39 40 39 37 35 37 38 37 37 36 33 30 29 30 25 28 32 36 38 37 36 35 31 30 32 32 33 32 32 33 32 33 32 30 29
40 38 39 39 40 41 42 42 41 39 36 32 29 30 31 31 32 31 31 30 27 25 28 28 29 33 32 35 34 33 32 32 30 31 31 31 31 31 33 32 30 31 30 26
44 43 44 43 40 39 39 37 34 32 30 30 31 30 28 25 27 28 28 27 23 23 29 30 29 30 31 32 30 29 29 30 30 29 30 29 29 31 31 31 31 26 26 26
46 44 44 44 42 39 36 33 31 30 28 28 25 24 23 21 27 28 27 18 21 23 26 28 28 28 27 27 26 25 25 26 28 29 29 29 29 30 31 31 29 23 26 25
41 40 39 36 35 34 32 32 30 29 29 25 20 18 20 17 15 15 17 22 25 24 26 27 25 23 24 23 21 23 24 24 25 27 27 27 28 28 28 27 26 24 24 24
36 34 32 32 30 30 28 28 27 27 27 18 19 13 12 15 16 14 19 22 24 23 24 23 22 20 21 18 23 21 20 20 19 19 20 21 22 23 23 23 22 21 20 20
35 32 31 30 30 30 29 29 27 22 20 15 9 10 11 21 16 19 14 21 23 14 20 22 19 13 17 15 18 16 16 17 15 15 15 16 18 18 19 19 18 18 18 18
33 33 32 30 29 29 29 27 21 20 15 13 12 14 17 21 21 16 17 23 22 17 21 18 10 9 9 13 13 13 12 13 11 11 12 13 14 14 15 14 14 14 14 15
32 32 31 32 29 29 28 29 28 27 16 19 14 11 18 12 10 20 20 15 10 8 9 13 11 9 5 3 5 8 7 10 9 8 9 11 10 12 11 11 11 12 12 13
33 32 32 29 29 27 27 28 27 26 25 24 23 24 22 20 12 13 10 10 12 11 8 8 10 8 3 -1 -1 -0 1 5 4 7 7 7 7 8 8 8 9 9 10 11
31 28 27 28 26 25 24 24 21 20 19 14 14 8 13 14 13 12 9 9 10 10 7 4 3 2 3 1 -1 -1 1 7 4 6 6 3 4 5 5 6 7 8 9 9
28 27 26 25 26 24 22 20 15 13 13 6 7 7 15 12 6 10 4 1 2 6 1 -1 2 1 2 7 0 1 -1 0 -1 5 3 -4 0 1 2 3 5 6 7 8

GFSNGP_sfc_temp_054.txt.gz
Temp
50 52 53 50 50 50 49 47 40 45 46 53 54 55 55 58 58 57 58 58 58 55 55 56 57 54 53 54 55 55 54 53 51 51 48 49 48 45 48 46 47 47 46 43
43 48 49 45 49 49 50 51 49 48 48 53 54 55 54 56 57 57 57 56 58 55 56 56 54 51 52 52 53 52 51 51 51 50 49 47 46 46 45 47 46 45 43 41
36 42 42 34 45 49 51 50 51 43 48 51 51 52 52 52 54 55 55 55 54 55 55 54 52 52 50 50 50 49 49 50 50 49 47 47 48 47 46 44 44 42 40 40
31 32 26 46 54 53 49 49 50 51 49 51 51 50 51 53 52 54 54 53 52 51 51 51 51 50 49 50 49 47 47 48 48 46 45 46 45 45 43 43 41 39 37 38
30 30 39 47 52 50 47 44 50 49 50 51 52 51 49 52 52 49 49 48 47 48 48 48 49 49 48 46 47 46 45 46 46 46 44 44 42 42 42 39 38 37 37 36
30 28 25 42 51 56 53 36 50 50 50 51 49 37 42 48 50 47 47 46 45 46 46 45 45 46 45 43 44 43 46 46 45 44 44 43 42 40 39 38 38 37 35 34
24 26 33 48 54 54 38 38 50 50 49 48 45 45 46 46 45 46 45 44 44 44 43 43 45 46 45 45 44 45 45 44 45 45 43 42 40 39 38 36 34 33 32 32
29 26 30 52 52 44 45 48 49 49 48 48 47 47 44 44 43 42 42 42 44 43 44 46 47 47 44 42 45 45 44 43 42 42 42 41 38 37 36 33 31 31 26 29
38 36 47 49 49 49 50 49 48 47 49 49 47 44 43 41 41 41 41 41 45 44 44 44 44 43 42 42 43 42 42 40 39 40 39 38 36 35 32 31 28 29 29 29
42 45 45 48 49 50 49 46 46 47 49 49 43 42 40 40 40 40 43 43 44 43 41 40 42 42 41 42 42 40 38 38 37 36 36 35 35 34 31 29 28 29 29 29
40 44 46 47 47 46 45 45 43 43 44 44 42 40 40 40 42 41 41 42 42 40 39 39 40 40 41 41 41 38 37 36 36 35 34 33 34 34 33 32 32 32 29 29
35 47 44 43 44 46 43 42 42 41 39 41 41 39 40 39 40 40 40 41 40 38 38 37 38 37 38 38 37 35 34 33 31 31 31 31 32 34 36 35 35 35 36 32
44 46 44 42 43 44 41 40 41 39 39 36 37 37 37 38 39 38 39 37 36 35 35 35 35 35 36 35 34 33 31 31 30 30 31 31 32 31 31 35 36 36 36 36
46 45 40 41 37 41 40 40 40 39 38 38 37 36 37 37 36 35 35 35 36 35 34 33 33 32 34 35 34 31 31 31 31 29 29 31 30 30 31 31 32 34 35 34
43 44 42 41 40 39 40 39 37 36 35 35 36 36 37 35 33 32 33 34 33 32 32 31 29 30 32 32 32 31 30 29 30 29 29 28 28 29 29 30 31 31 33 29
40 41 40 38 38 38 39 37 35 35 35 34 33 33 34 33 32 32 31 30 28 26 27 21 26 29 30 31 29 29 28 27 26 28 28 28 28 28 29 29 29 31 31 30
36 35 37 37 38 38 37 37 36 34 32 30 29 30 31 30 30 29 29 28 24 23 25 25 25 29 28 27 26 24 24 25 24 26 26 27 28 28 28 28 28 29 30 32
42 41 42 41 39 36 36 35 33 30 30 31 28 24 23 24 27 27 25 23 20 21 26 26 26 25 25 26 24 23 22 23 24 24 25 26 25 27 26 26 27 28 29 27
44 42 41 41 39 36 33 31 29 30 28 26 25 23 23 21 26 25 24 17 17 20 23 24 24 22 22 22 22 22 20 18 19 19 19 19 20 21 22 23 22 22 22 23
41 41 38 37 35 32 29 29 29 28 27 24 20 20 22 18 13 15 19 19 21 22 25 22 22 21 21 20 17 18 15 15 15 14 14 14 16 16 17 19 18 19 18 18
35 34 32 31 30 30 29 27 27 26 26 19 18 15 14 16 14 12 17 20 22 21 23 20 18 18 18 14 16 12 10 12 9 9 9 9 11 11 13 12 13 14 14 15
33 31 29 29 29 28 29 29 27 23 20 17 14 11 13 20 15 15 12 19 22 11 18 19 17 7 12 7 13 5 10 10 7 7 6 8 8 7 9 8 9 10 11 12
31 31 30 28 28 28 28 26 22 21 18 16 13 13 17 20 19 13 13 21 21 13 18 13 6 3 2 -1 -3 -4 -3 -1 -2 3 1 5 4 5 6 6 7 8 8 10
31 31 30 30 29 27 26 26 27 24 17 17 11 8 17 11 8 18 18 11 5 3 3 4 3 4 -0 -6 -7 -7 -6 -3 -6 -4 3 -2 -4 3 2 2 4 5 7 8
32 31 30 29 28 26 28 27 25 25 22 22 20 21 19 19 11 11 6 6 8 7 3 0 2 0 -5 -7 -9 -7 -9 -7 -9 -8 -2 -9 -4 -1 -1 -0 1 2 4 5
29 27 27 27 25 25 24 23 19 18 17 10 12 3 9 12 12 10 4 3 5 4 0 -5 -7 -7 -8 -3 -5 -6 -7 -4 -9 -5 -5 -10 -8 -3 -4 -3 -2 0 1 2
26 25 25 24 24 22 21 19 13 11 10 5 6 3 13 8 3 5 -3 -5 -6 -4 -7 -7 -7 -6 -6 -8 -6 -1 -5 -8 -10 -7 -13 -15 -12 -9 -7 -6 -3 -1 -1 -0

GFSNGP_sfc_temp_057.txt.gz
Temp
47 48 50 49 50 48 46 44 39 43 43 50 52 54 54 55 55 54 55 55 55 53 52 53 52 51 51 52 53 53 52 51 50 50 48 46 46 45 47 46 47 46 45 43
40 45 47 44 49 48 47 47 46 46 45 50 50 50 50 52 54 53 54 54 55 53 53 53 51 49 50 51 51 52 51 49 49 48 48 47 46 45 46 46 46 44 42 40
36 40 40 35 42 47 48 49 48 41 48 48 48 49 48 49 51 51 52 51 51 51 50 49 49 50 48 47 48 48 49 49 48 47 46 46 46 46 44 43 43 42 41 39
30 32 25 45 49 51 47 46 47 47 48 48 46 46 46 47 48 48 47 47 47 47 46 46 46 46 47 48 48 48 47 47 47 46 45 45 44 42 42 42 40 38 37 37
30 30 37 45 47 47 46 43 47 45 46 47 48 47 46 47 46 43 43 43 42 44 45 45 46 46 46 45 47 47 46 45 45 45 44 43 42 42 40 37 36 36 36 35
28 28 26 41 49 54 50 35 49 49 46 47 46 37 41 44 43 42 43 43 42 43 43 43 43 45 44 44 46 44 45 45 44 43 43 42 40 38 37 36 36 35 34 33
24 26 34 46 52 52 38 39 48 49 48 47 45 43 42 42 41 42 42 41 43 43 42 42 44 45 43 42 43 44 44 44 45 43 42 40 38 37 36 34 32 31 31 31
27 24 31 50 48 43 45 44 48 47 47 44 41 41 40 40 40 40 40 41 43 42 41 42 43 44 42 42 45 45 43 42 41 40 40 39 35 34 34 32 30 30 26 29
38 37 46 47 49 47 48 47 46 47 46 45 41 39 39 38 39 40 40 39 41 42 42 41 44 43 39 40 42 41 40 38 38 38 37 36 34 33 31 31 28 30 30 30
41 44 43 45 45 46 47 45 46 47 46 45 40 39 38 38 38 38 39 40 43 42 41 40 42 40 39 39 39 37 36 35 35 33 33 33 33 32 30 28 29 31 31 30
38 41 45 45 43 42 42 42 42 42 43 42 40 38 39 38 38 38 40 41 42 40 39 37 37 35 35 35 35 33 33 33 32 31 31 31 32 31 32 32 31 32 33 32
37 45 44 43 42 43 42 40 41 40 39 40 40 39 38 37 39 40 39 40 38 37 36 34 33 33 33 34 33 31 31 31 29 29 29 29 29 31 35 34 35 36 36 33
47 49 42 41 41 42 40 39 39 39 39 36 38 37 38 37 38 37 38 37 35 34 32 31 30 30 31 31 31 30 28 29 28 29 28 28 28 28 27 32 35 35 35 36
44 43 38 39 36 39 39 39 39 37 37 37 36 36 35 35 35 35 34 33 32 31 30 29 28 28 30 30 30 28 27 27 26 26 25 26 25 26 27 27 27 28 33 34
41 43 41 39 38 37 38 38 35 34 34 33 35 34 35 33 30 29 30 31 30 28 27 27 27 27 29 29 27 26 26 24 24 23 23 24 24 26 28 28 28 28 30 30
39 39 38 36 36 36 37 35 33 32 33 33 32 32 31 31 30 29 29 30 27 24 24 19 24 26 28 26 25 24 24 22 21 23 23 24 24 24 24 24 24 24 24 25
35 33 35 34 35 35 35 36 35 32 31 31 30 31 31 30 29 28 26 26 23 22 24 23 22 26 25 25 23 22 21 21 19 22 20 19 19 19 20 21 21 21 21 23
42 41 41 39 37 35 35 33 32 31 30 29 28 26 25 25 26 24 23 22 20 20 24 23 23 24 23 23 22 21 18 17 18 16 17 15 15 17 16 17 17 17 17 19
43 41 41 40 39 35 33 31 30 30 27 26 26 24 24 23 26 24 22 17 16 19 22 22 22 21 21 20 19 17 13 12 12 13 12 10 11 12 12 12 11 12 13 15
40 39 37 35 34 32 30 29 29 29 28 25 23 22 21 18 19 18 18 18 20 21 23 21 20 19 18 18 11 14 10 8 9 8 7 6 7 5 8 8 8 8 8 10
35 34 32 31 30 29 29 28 26 26 26 22 21 19 18 18 17 15 16 18 21 20 21 17 17 16 17 12 13 5 1 -1 -1 2 -0 1 3 3 5 3 4 5 5 7
32 31 29 29 29 28 28 29 26 22 21 17 15 15 16 18 15 16 11 18 21 11 17 17 16 6 10 4 10 -2 5 2 -1 -3 -2 -2 -2 -2 1 0 1 3 3 4
30 30 29 28 27 28 27 25 22 21 18 17 16 17 18 20 19 13 13 20 19 11 16 10 5 1 -1 -5 -7 -10 -9 -8 -9 -9 -7 -11 -10 -6 -1 -2 -2 -0 1 2
30 30 30 30 27 26 24 25 26 23 18 18 13 11 18 13 9 17 17 8 3 0 1 1 -1 1 -5 -10 -12 -12 -12 -12 -14 -15 -4 -10 -15 -11 -7 -6 -5 -3 -2 -0
30 30 29 28 28 26 27 26 23 23 22 22 20 20 19 17 10 10 4 4 7 5 1 -3 -1 -3 -11 -12 -13 -12 -13 -13 -15 -16 -13 -17 -14 -12 -12 -11 -8 -6 -5 -3
29 28 27 27 25 25 23 23 20 19 17 11 11 3 9 9 10 10 5 1 3 1 -2 -8 -11 -12 -12 -10 -11 -10 -9 -7 -14 -14 -15 -17 -15 -13 -12 -10 -10 -8 -6 -4
25 24 23 22 22 21 20 19 16 14 13 7 8 3 8 7 5 6 -5 -7 -8 -8 -10 -10 -11 -10 -9 -13 -12 -8 -7 -11 -15 -13 -19 -20 -16 -17 -16 -13 -11 -10 -7 -5

GFSNGP_sfc_temp_060.txt.gz
Temp
45 46 48 47 47 44 43 43 38 42 41 48 50 50 51 52 52 52 53 53 53 52 51 51 50 48 48 48 50 50 50 49 48 49 48 46 46 45 45 44 45 46 45 43
39 42 44 42 47 46 45 44 43 43 43 49 47 47 48 49 51 50 50 51 51 51 51 49 48 48 48 48 48 49 49 47 47 47 46 45 45 44 44 45 45 44 42 42
36 38 40 34 41 46 47 46 46 39 46 48 45 46 44 46 48 47 46 46 47 47 47 46 46 47 46 45 46 46 48 48 47 46 45 45 45 44 43 42 42 41 41 40
30 31 25 44 46 48 46 46 46 45 44 45 45 42 42 42 44 43 43 43 43 43 42 42 44 44 45 46 45 46 46 46 46 45 44 44 43 43 42 41 40 38 37 36
31 30 37 43 45 45 44 44 46 44 44 44 45 44 42 42 41 40 39 39 39 41 41 42 43 44 45 45 47 46 45 44 45 44 43 43 42 41 39 37 36 35 34 34
28 28 26 40 47 50 49 37 47 46 44 44 44 38 40 40 40 39 39 39 39 40 41 41 40 45 46 46 45 43 44 44 44 43 43 42 40 38 36 34 34 33 33 33
24 26 34 45 48 50 37 39 46 47 47 44 43 41 38 39 38 39 39 39 40 41 39 39 41 44 43 44 43 44 44 43 43 42 40 39 36 35 34 33 31 31 31 31
27 25 31 49 47 43 45 42 45 46 45 43 38 37 37 38 37 38 38 39 40 39 39 39 40 41 39 41 43 42 41 40 39 38 37 37 34 33 33 31 29 30 27 30
40 38 46 47 47 46 47 46 46 46 44 42 38 37 37 36 37 37 38 37 39 39 39 39 39 39 39 38 39 38 37 35 34 34 33 32 32 31 29 29 27 29 30 30
41 44 44 44 44 45 45 44 45 45 44 43 38 37 37 37 37 37 37 37 39 38 36 35 36 37 35 35 35 34 32 31 31 30 31 30 30 30 28 26 27 30 29 29
40 42 44 45 42 43 42 43 42 42 42 40 38 37 37 36 36 37 37 37 37 36 34 34 34 32 33 33 32 31 30 30 29 29 28 29 29 28 29 29 28 29 29 30
42 48 47 44 41 42 41 40 41 40 38 39 39 37 37 36 36 36 36 37 36 35 34 32 31 30 30 31 30 29 29 28 26 26 26 26 26 27 32 32 33 34 34 31
48 47 41 40 40 41 39 38 39 38 39 36 37 37 36 35 34 36 36 35 34 32 31 30 28 27 28 29 29 28 26 26 25 25 25 24 24 24 23 28 32 33 33 32
43 43 39 40 37 38 38 37 38 37 37 36 35 35 35 34 34 34 33 32 32 30 28 28 27 26 28 28 27 26 25 23 22 22 21 22 23 24 25 24 22 23 28 28
38 40 40 38 37 36 37 37 34 33 33 33 34 33 34 32 31 30 30 30 29 28 27 27 25 25 26 27 26 25 24 22 21 19 19 22 21 20 20 20 20 21 22 22
37 38 38 35 34 35 35 34 32 32 33 32 32 32 32 31 30 29 30 30 27 24 24 19 22 25 26 25 24 23 23 20 19 20 18 18 17 16 17 17 18 17 17 16
34 33 33 33 33 33 34 35 34 32 32 31 30 31 30 29 28 27 25 25 23 22 22 21 22 25 25 24 23 20 18 19 16 17 15 14 13 14 14 14 12 12 12 13
41 41 41 38 35 33 33 33 33 33 32 31 30 28 27 27 26 24 22 22 21 20 22 22 23 23 22 21 21 18 15 14 14 13 12 10 9 11 8 10 9 8 9 10
40 39 38 38 37 33 31 31 31 30 28 28 27 25 25 25 25 23 22 18 17 19 20 21 22 20 19 18 16 14 11 7 8 10 7 4 3 6 4 6 4 4 6 6
38 37 35 33 32 31 30 30 30 29 28 26 24 23 22 21 20 18 18 18 21 22 22 20 19 18 17 16 11 12 7 1 6 3 -1 1 -6 -6 -4 1 2 1 1 2
33 32 31 30 30 30 29 28 27 27 26 24 23 21 21 19 18 16 17 18 20 21 21 18 17 16 15 11 12 3 -2 -5 -5 -5 -6 -10 -12 -8 -7 -8 -7 -3 -1 0
32 30 28 28 27 27 28 28 26 23 22 20 19 19 18 18 16 16 13 18 21 14 17 16 15 6 9 3 9 -3 3 -1 -6 -9 -9 -12 -15 -15 -11 -11 -10 -6 -4 -3
30 29 28 27 27 27 26 24 21 21 19 18 18 18 19 20 19 15 14 19 19 12 16 10 6 1 -2 -7 -9 -11 -11 -11 -12 -13 -15 -16 -18 -20 -16 -11 -8 -9 -7 -6
29 28 28 28 27 26 23 24 25 22 19 19 15 13 18 13 11 17 16 8 4 1 2 -0 -2 -0 -6 -12 -14 -14 -15 -15 -16 -19 -13 -14 -22 -21 -16 -15 -12 -10 -9 -9
28 28 28 28 27 25 26 24 22 22 21 21 19 20 18 16 10 11 5 5 7 4 0 -4 -3 -5 -14 -15 -14 -15 -14 -13 -17 -20 -18 -21 -21 -19 -17 -16 -16 -14 -11 -9
27 25 25 25 24 24 23 22 19 18 17 13 14 9 8 10 10 8 2 1 2 -0 -3 -9 -11 -13 -15 -13 -15 -15 -12 -4 -13 -17 -18 -20 -23 -17 -18 -15 -15 -14 -13 -11
23 23 22 21 21 20 20 19 18 16 15 12 12 10 10 8 5 5 -4 -7 -9 -11 -11 -11 -9 -10 -11 -15 -15 -13 -12 -12 -13 -13 -19 -24 -25 -24 -21 -19 -17 -15 -13 -11

GFSNGP_sfc_temp_063.txt.gz
Temp
50 51 51 51 51 49 49 51 46 51 48 57 59 61 60 59 59 60 62 62 61 60 60 60 58 56 56 55 55 55 53 52 51 51 51 48 46 46 49 46 45 47 46 48
46 48 50 49 52 50 50 51 50 50 49 58 59 57 56 54 57 56 54 55 58 59 58 56 55 55 53 54 54 56 54 50 49 48 48 45 46 44 44 47 45 46 44 43
42 45 46 39 46 50 51 52 53 47 54 55 54 54 53 52 53 52 50 51 51 52 53 53 53 53 52 52 53 53 52 50 49 47 45 44 44 46 45 45 44 43 44 48
37 37 32 51 52 54 52 53 54 52 53 55 55 50 49 49 52 49 48 48 48 49 49 50 51 51 51 53 51 50 47 46 45 45 45 45 45 45 44 43 46 48 47 47
36 38 43 48 50 50 50 53 55 54 54 51 50 51 48 46 47 46 46 46 46 48 48 50 50 51 51 51 49 47 46 46 46 45 46 46 44 44 46 47 46 46 45 45
35 35 34 47 53 54 57 45 56 54 51 49 50 48 52 45 45 44 45 46 46 47 48 48 50 51 50 48 47 46 45 45 47 44 44 46 46 46 46 46 45 45 44 44
33 36 41 50 53 55 44 49 53 54 53 51 51 51 47 44 43 45 45 45 47 47 47 48 50 50 47 47 45 47 48 46 45 48 46 45 45 45 44 43 42 41 39 42
34 34 37 52 52 48 54 52 53 52 51 50 43 41 42 42 42 43 44 45 46 45 45 47 49 48 47 45 47 45 45 44 43 43 42 42 42 42 42 41 39 39 35 38
44 45 52 53 56 55 53 55 51 53 51 46 42 42 42 41 42 43 44 45 45 44 42 43 45 46 42 42 44 43 41 40 40 40 40 40 40 39 39 39 37 35 35 35
46 50 50 51 51 51 52 53 53 53 50 48 44 42 41 42 42 42 43 42 43 42 40 38 40 40 40 40 41 40 39 38 38 37 37 38 38 38 37 35 33 33 33 32
45 48 47 50 49 50 49 48 48 49 48 46 43 42 42 41 42 42 41 41 42 39 37 36 37 36 37 38 39 37 36 35 35 34 34 34 35 34 33 34 33 32 32 32
44 52 53 56 53 48 46 46 47 44 43 44 44 42 42 41 41 41 40 40 38 37 35 33 33 33 34 35 36 35 33 33 30 31 31 32 32 32 31 31 32 32 31 30
51 50 45 43 43 46 44 44 44 44 43 40 42 42 41 39 40 38 38 38 36 33 32 32 32 31 32 33 33 31 30 30 30 29 29 28 28 28 27 30 30 29 29 28
45 46 43 44 43 42 42 41 41 41 41 41 40 40 39 37 37 36 35 34 33 32 31 31 30 28 30 32 31 29 28 24 27 28 27 26 26 25 26 24 23 25 27 26
41 43 43 40 40 38 39 39 37 36 37 37 39 37 37 35 33 32 33 32 32 31 30 30 28 27 30 30 29 28 28 26 26 25 24 23 23 23 23 23 22 22 23 23
39 40 40 37 37 37 38 37 35 35 36 35 36 36 35 33 32 31 31 32 30 26 27 23 24 27 28 28 27 26 26 22 22 23 22 21 20 20 20 19 19 18 18 17
35 33 35 35 35 35 36 37 36 35 35 34 32 32 32 31 29 28 28 26 24 23 23 23 24 27 26 26 25 24 23 22 18 20 19 18 17 17 17 16 16 15 15 15
43 41 42 39 36 34 34 34 33 33 31 30 29 27 27 28 27 25 24 23 22 22 23 24 25 25 23 23 22 20 19 18 18 17 16 14 14 15 13 13 13 12 13 14
40 38 37 36 36 35 33 32 31 29 28 28 27 26 26 26 26 25 24 21 20 21 22 24 22 22 21 20 19 17 16 14 14 14 13 10 11 11 10 10 11 10 10 10
36 36 35 33 34 32 29 30 30 28 28 27 26 25 23 23 22 21 22 22 24 24 24 22 21 20 19 17 16 17 14 12 12 12 11 10 8 7 8 6 7 7 7 8
32 32 31 30 29 28 28 28 27 26 27 27 26 24 23 21 21 20 21 21 22 23 22 20 20 19 19 17 17 15 13 12 10 10 8 7 6 6 6 5 5 5 5 6
30 29 28 28 28 27 27 28 27 25 24 22 22 21 20 20 19 19 19 22 23 20 21 20 19 12 15 10 16 14 13 12 10 9 8 7 6 4 3 3 3 3 3 4
29 29 28 26 26 26 26 25 23 23 22 21 21 22 22 22 22 20 19 21 22 17 20 18 11 7 5 13 12 11 10 8 8 7 6 5 4 3 2 1 1 1 1 1
28 27 26 26 27 27 24 25 25 23 21 21 19 19 22 19 19 21 21 14 11 15 16 14 10 6 4 10 9 9 8 8 6 6 5 -2 3 1 1 -0 -2 -0 -1 -1
27 27 28 27 26 25 25 24 24 23 22 21 21 21 21 21 20 18 17 16 14 14 15 4 4 2 9 9 8 7 7 7 6 5 4 3 1 -0 -0 -1 -3 -3 -3 -2
25 24 24 24 24 24 24 24 21 21 20 19 18 17 17 17 17 16 15 12 13 10 12 10 8 7 8 7 6 5 5 6 5 4 1 1 -0 -1 -2 -3 -4 -4 -4 -3
23 23 22 21 21 21 22 21 20 18 18 18 18 17 17 15 14 14 11 12 10 9 8 7 7 6 6 5 5 5 4 4 1 1 1 -0 -2 -3 -4 -6 -6 -6 -6 -5

GFSNGP_sfc_temp_069.txt.gz
Temp
64 67 68 66 64 65 62 63 56 61 63 70 74 75 77 79 80 78 80 81 82 82 80 79 77 74 66 61 59 58 55 53 51 51 50 50 48 48 48 48 48 48 47 46
58 65 66 62 66 66 66 66 66 66 65 76 78 79 77 77 77 76 75 76 78 80 79 76 72 70 62 59 57 56 54 52 52 50 50 49 49 48 49 48 48 47 45 46
50 62 61 52 60 65 66 69 67 60 68 76 75 75 76 77 75 74 71 70 72 74 73 71 69 65 59 57 56 53 52 52 52 52 50 49 49 48 47 45 45 47 50 50
49 46 39 60 70 70 66 69 72 71 72 75 76 78 76 76 75 71 69 68 69 70 69 69 68 65 61 59 57 56 55 54 53 51 50 50 49 47 45 49 51 53 53 56
45 47 55 62 63 63 63 64 73 72 74 76 78 73 70 72 73 71 69 68 68 68 68 67 67 67 65 63 61 59 56 54 54 54 50 49 46 47 50 50 54 56 56 54
49 43 39 58 68 70 72 56 73 75 73 73 72 61 70 69 69 66 67 67 66 67 67 66 65 65 62 60 59 55 54 54 54 52 53 53 52 54 56 56 55 56 53 53
47 45 54 68 71 71 52 54 74 76 76 74 70 71 69 66 65 66 66 66 66 66 64 64 64 63 59 58 56 56 56 55 54 54 57 56 55 55 54 54 52 49 47 48
48 43 41 68 63 58 66 73 74 76 76 73 71 65 64 64 63 63 63 63 65 63 63 63 64 62 60 58 58 58 57 55 55 55 54 54 53 52 52 51 48 46 43 44
54 54 67 68 70 71 73 70 74 74 77 75 65 63 63 62 62 62 62 63 64 62 60 61 62 62 58 57 56 55 54 53 52 52 52 52 50 49 50 49 46 44 42 41
56 63 67 68 70 72 72 71 75 73 75 73 65 64 62 62 62 61 62 61 62 60 58 57 59 58 57 56 55 54 51 50 50 49 48 49 51 49 48 45 43 40 40 39
58 63 67 68 66 70 72 71 70 72 72 71 66 63 63 62 61 61 59 59 59 57 55 54 54 53 54 54 54 50 49 48 47 46 47 45 46 43 42 38 35 36 37 36
53 65 63 66 65 65 69 70 69 67 67 69 67 64 63 62 61 60 58 58 55 53 52 51 51 50 51 52 51 48 46 45 42 42 42 45 45 40 32 32 31 30 29 29
63 63 62 62 60 62 63 67 69 67 68 66 67 65 62 60 59 52 56 54 52 50 49 48 47 46 47 47 47 45 43 41 38 39 41 40 40 39 38 31 31 30 29 28
63 59 59 62 60 58 59 61 59 64 66 65 63 63 61 57 53 54 52 52 51 48 46 45 43 40 42 43 41 38 37 31 40 39 38 37 37 35 35 33 31 32 30 29
61 60 60 59 58 57 58 57 57 57 58 58 59 57 56 53 52 51 50 48 47 44 41 39 38 37 39 38 39 38 38 37 36 34 32 31 32 32 32 31 31 31 32 32
59 58 58 56 56 55 55 55 54 52 54 54 54 53 52 52 48 45 45 41 37 34 30 29 31 33 35 36 36 34 30 27 28 32 31 31 30 29 30 29 28 29 29 29
54 52 52 52 53 53 54 54 52 52 51 49 48 48 43 40 35 31 29 28 26 25 26 26 27 31 32 33 34 33 33 31 22 30 29 28 28 27 27 27 26 26 26 27
57 57 56 55 52 49 48 47 46 43 39 34 32 31 29 28 25 24 25 25 24 24 25 27 28 29 29 30 30 29 29 28 28 27 27 26 25 25 25 24 24 24 25 25
50 47 48 46 42 39 35 32 31 30 31 30 28 27 27 26 26 25 25 23 22 22 23 26 26 28 27 24 27 28 26 25 26 26 25 23 23 25 23 23 22 22 22 21
37 35 33 32 32 32 30 31 31 30 30 29 28 26 25 25 25 25 26 25 27 27 28 27 27 27 26 24 23 27 25 24 24 23 23 20 21 21 21 20 20 20 19 19
30 31 30 31 31 31 32 32 32 31 31 30 28 26 25 26 27 26 26 25 26 28 27 26 28 27 27 25 25 25 24 23 22 22 21 20 20 20 19 19 18 18 17 17
32 32 31 32 32 31 32 32 31 29 28 27 26 26 25 26 25 26 28 27 27 27 28 28 26 20 22 19 25 23 23 22 21 20 20 19 18 17 16 16 16 16 16 15
31 32 32 31 30 30 30 30 29 28 27 27 27 29 29 31 31 29 25 28 28 26 29 24 20 18 18 21 22 21 20 19 19 18 18 17 16 15 15 14 14 14 13 13
32 32 33 34 34 32 29 30 29 28 26 27 27 28 31 28 27 29 27 25 24 24 22 20 19 17 15 20 20 19 18 18 17 17 16 15 15 15 14 14 13 13 13 12
32 33 33 32 32 31 32 32 31 31 30 29 29 29 29 28 26 25 25 23 21 23 22 16 16 16 19 19 18 17 16 16 16 15 14 13 13 13 13 13 12 12 10 9
31 30 31 32 32 32 32 31 28 29 29 26 25 25 25 25 25 24 23 22 21 21 20 20 18 18 17 17 16 15 15 15 14 14 12 12 12 12 11 11 11 10 9 9
30 29 29 27 28 28 27 27 25 23 24 25 23 25 25 24 23 23 21 21 20 20 19 18 18 17 16 14 14 14 14 13 13 12 11 10 10 10 9 9 8 8 6 5

GFSNGP_sfc_temp_072.txt.gz
Temp
62 64 65 62 62 63 61 62 54 58 61 67 72 73 74 77 77 73 74 79 79 79 77 76 74 65 64 62 61 59 56 52 50 50 49 49 49 49 48 47 48 47 46 46
55 63 64 60 65 64 64 64 64 64 63 73 76 77 76 76 77 76 76 76 78 79 76 73 65 61 58 56 55 55 51 49 49 48 48 47 47 47 47 47 46 46 45 45
46 59 59 48 59 64 65 67 66 58 66 73 73 74 75 75 76 75 74 73 73 75 72 68 61 60 56 53 53 51 50 50 50 49 48 47 48 47 46 45 45 45 45 46
44 44 38 58 69 69 65 67 69 69 71 73 74 76 77 76 75 73 72 71 72 71 68 64 61 58 56 54 52 52 51 51 50 49 48 47 47 45 45 45 46 47 48 48
41 43 53 60 64 64 61 60 70 69 71 74 76 74 71 75 73 73 70 69 69 69 68 63 60 59 57 55 54 54 51 51 51 49 48 47 45 46 47 47 49 49 50 49
43 40 37 55 67 70 68 51 70 71 70 71 73 57 65 70 72 69 69 69 67 67 66 64 63 61 59 57 55 53 53 52 52 51 49 47 48 49 49 49 51 50 48 46
40 39 49 65 67 67 48 51 67 72 72 71 68 67 67 69 67 68 67 67 67 65 63 62 63 62 59 56 54 55 54 52 51 52 52 52 51 50 49 47 45 40 39 39
43 39 39 67 64 55 60 65 70 72 72 68 63 64 65 65 64 65 65 65 65 62 62 61 62 60 57 55 56 55 54 53 52 53 53 52 48 47 47 44 40 37 35 35
50 49 62 65 64 65 66 67 67 70 72 71 63 64 64 63 63 64 64 63 64 62 59 60 60 60 56 55 56 54 53 51 50 51 51 50 46 44 43 42 37 33 33 32
50 57 59 64 66 68 69 67 71 72 70 71 64 64 63 63 63 62 63 62 62 60 58 57 60 60 56 55 54 53 50 48 48 46 46 46 47 45 41 36 32 32 32 31
53 59 60 62 66 65 67 69 69 70 70 68 67 64 63 62 62 62 61 61 60 58 56 56 55 54 54 54 53 49 47 46 44 42 43 41 38 36 32 30 30 29 29 29
49 60 60 61 62 63 64 65 68 67 67 68 70 65 64 62 62 62 59 59 57 56 54 51 51 51 51 52 50 46 44 41 37 37 36 40 38 34 33 31 31 30 30 28
61 65 62 62 62 64 61 63 66 67 67 65 67 66 64 62 61 54 58 56 53 50 49 48 47 46 45 45 44 42 37 37 35 36 35 34 33 32 29 29 31 31 30 29
68 62 59 63 59 59 60 60 60 64 64 64 63 63 62 58 55 55 54 52 51 49 46 44 41 39 40 40 37 35 35 33 35 33 33 32 31 31 31 29 27 27 29 29
63 62 61 60 59 58 59 59 58 57 58 58 59 57 54 53 52 51 51 49 47 43 40 38 35 34 37 36 34 31 31 29 29 29 27 27 29 29 29 28 28 27 28 27
62 60 60 58 58 56 56 56 52 53 55 54 53 52 50 45 38 34 35 37 32 29 29 26 27 27 33 33 28 27 28 27 27 29 29 28 28 27 27 26 26 25 24 24
54 52 55 53 53 54 53 53 52 51 49 42 35 34 33 31 29 26 26 26 26 25 25 25 25 27 31 31 32 31 29 26 23 29 27 26 25 25 25 24 22 22 21 19
57 57 58 55 50 47 39 37 37 34 32 32 30 28 26 25 23 23 24 24 23 23 24 24 26 28 28 28 29 28 26 26 26 25 25 24 22 22 21 21 21 20 20 21
46 42 40 39 38 34 32 31 31 31 30 29 27 25 26 25 25 24 24 22 21 21 22 24 27 26 24 23 26 26 24 23 24 24 23 22 20 22 21 20 20 18 18 17
36 35 33 32 33 31 29 29 29 28 28 27 26 25 24 24 25 25 24 23 24 23 26 28 28 26 26 25 22 26 24 23 23 22 21 20 18 19 18 17 18 17 16 16
30 31 31 30 30 30 30 30 30 29 29 28 26 25 25 25 25 25 23 22 25 27 27 26 26 26 24 22 23 24 22 21 20 20 19 19 18 18 17 17 16 15 14 14
31 30 29 29 30 29 29 30 29 27 26 25 25 25 24 25 25 24 26 24 26 25 27 25 22 18 19 16 23 21 20 20 19 18 17 17 16 15 14 14 13 13 13 11
30 30 29 28 28 28 29 28 27 27 26 26 26 26 27 28 28 26 22 27 27 24 23 19 16 15 13 18 20 19 18 17 16 16 16 15 15 14 13 12 12 11 11 11
30 29 29 31 30 29 26 27 28 27 25 25 24 25 27 25 24 26 25 22 20 20 18 17 15 14 9 17 18 17 16 15 15 15 14 11 12 13 12 11 11 11 10 9
31 31 31 31 30 29 30 30 30 29 27 26 26 26 25 25 23 23 22 21 19 20 17 13 14 12 16 16 15 14 14 14 13 12 12 11 10 10 10 10 10 9 7 6
28 28 28 29 29 29 29 28 25 26 25 23 23 24 24 24 23 23 21 20 19 18 18 18 17 16 15 14 12 12 12 13 12 11 10 9 8 8 8 8 7 7 6 5
27 27 26 25 26 25 25 24 22 21 23 23 21 22 22 22 21 20 19 19 18 17 16 16 15 14 13 12 12 12 11 11 10 9 8 8 7 7 6 5 4 4 3 3

GFSNGP_sfc_temp_078.txt.gz
Temp
51 52 53 52 52 56 53 50 45 49 49 55 58 60 62 64 62 63 64 64 64 62 58 57 55 55 55 54 53 54 53 52 50 50 50 51 50 50 49 49 48 48 47 46
41 49 51 48 53 56 55 53 51 53 50 62 64 60 61 63 63 63 64 63 64 63 59 57 54 52 52 53 52 52 50 49 49 49 49 48 48 48 46 46 46 46 45 45
34 47 48 37 46 54 54 55 54 47 53 60 61 60 60 62 62 63 63 62 62 62 60 56 53 52 51 51 51 50 50 50 49 49 47 46 47 46 45 45 45 44 45 46
32 39 29 44 56 60 56 58 58 57 58 59 61 62 62 63 61 62 60 60 58 55 52 50 51 52 51 51 50 49 49 49 48 48 46 46 46 45 44 45 45 44 44 44
33 34 40 47 54 54 54 53 58 60 60 63 62 57 55 60 60 61 60 57 54 52 50 49 49 50 50 50 50 49 48 47 47 47 45 45 44 44 44 45 45 44 44 38
32 32 27 43 55 61 59 43 59 61 60 60 58 46 52 60 60 58 56 55 53 51 50 49 49 49 48 49 49 48 47 47 48 47 46 45 45 44 46 46 45 41 37 36
30 31 35 50 56 60 43 42 58 61 60 59 55 54 59 58 57 57 56 54 52 51 50 49 49 49 47 49 48 49 49 48 47 47 46 46 46 46 44 39 36 35 32 31
33 30 30 53 54 48 52 54 58 59 59 59 56 53 55 56 55 55 53 52 52 50 49 49 50 49 46 48 51 50 48 47 47 47 47 46 43 41 39 36 34 31 30 28
38 37 50 52 52 55 55 56 58 58 58 57 54 55 55 54 54 53 52 50 51 50 48 48 49 49 46 46 48 48 47 46 46 46 44 44 40 38 37 36 31 30 30 27
42 48 50 52 53 55 57 57 58 60 56 56 53 53 52 52 51 50 51 50 51 50 47 46 50 50 47 47 48 46 43 42 40 39 38 38 38 37 35 33 32 32 31 27
41 48 50 52 54 55 57 58 59 59 60 58 56 53 52 51 51 51 49 50 48 45 43 42 46 47 48 47 45 41 40 39 37 36 35 33 31 32 30 30 31 30 28 29
38 50 50 51 58 58 56 57 57 59 59 59 56 53 52 51 51 49 45 45 40 39 38 38 39 40 42 43 42 39 36 35 33 32 32 32 31 29 30 30 32 30 30 28
51 54 54 54 53 56 54 54 55 55 56 57 55 53 52 48 46 42 40 39 36 35 35 35 35 35 36 37 37 34 32 32 30 30 29 29 29 28 27 28 31 31 31 31
55 53 48 51 51 51 52 51 50 49 49 50 49 48 45 42 39 37 35 35 35 33 31 31 30 29 31 32 31 30 29 29 28 28 27 27 26 27 27 26 25 27 29 29
53 51 52 51 51 50 49 47 40 38 38 37 45 42 38 34 32 32 33 32 31 29 29 29 28 27 29 30 29 28 28 26 26 25 26 26 26 25 25 25 25 25 26 26
49 50 49 48 48 47 44 40 36 33 33 32 31 30 31 30 29 28 29 30 27 24 25 24 25 26 27 26 25 25 25 25 25 26 25 24 24 24 24 23 23 22 21 21
44 42 43 41 38 37 35 35 33 31 30 29 29 29 28 26 25 24 23 23 22 22 22 22 23 25 26 26 25 25 25 24 25 26 24 24 22 21 21 19 18 18 15 13
42 43 43 39 34 31 29 29 29 29 27 28 27 25 24 22 20 20 21 21 21 21 21 22 24 24 26 26 26 25 24 24 24 22 22 19 18 18 15 15 17 16 15 16
36 34 34 33 32 30 28 27 26 26 25 24 23 22 22 22 22 21 21 20 20 19 20 24 25 24 23 24 24 22 20 18 19 18 17 14 14 15 14 13 12 12 14 13
30 31 30 29 29 28 26 26 26 25 26 25 23 22 21 21 21 21 21 19 21 21 24 22 22 20 21 20 19 18 16 14 15 13 11 11 10 9 9 10 10 7 4 5
28 28 27 26 26 26 26 26 25 24 24 24 22 21 20 21 21 21 20 17 19 20 19 18 18 17 18 18 17 14 11 8 6 6 7 6 1 4 6 3 4 3 3 2
26 26 25 25 25 24 25 26 25 24 23 22 22 21 20 20 19 19 19 17 18 17 17 16 15 10 13 13 12 8 8 6 4 1 -1 -1 -1 -2 -1 -2 3 5 3 0
25 25 25 24 23 23 24 24 23 22 21 21 21 21 21 21 21 17 14 18 17 15 14 12 10 8 7 6 3 1 1 0 1 1 -2 -7 -8 -7 -4 -5 -5 -4 1 1
25 25 25 25 25 24 22 23 23 23 22 21 20 20 19 16 16 17 16 12 10 10 10 8 6 4 0 -1 -2 -3 -5 -6 -7 -10 -6 -6 -13 -14 -13 -13 -7 -4 -7 -10
25 25 25 24 23 22 22 22 22 22 21 20 20 20 19 19 14 14 14 13 13 10 7 3 2 -1 -4 -7 -7 -9 -12 -12 -11 -8 -12 -14 -16 -16 -12 -12 -14 -13 -15 -14
24 23 23 24 24 23 23 22 19 19 18 15 15 15 15 15 13 11 9 8 7 4 2 -3 -4 -5 -6 -6 -10 -10 -8 -5 -10 -11 -15 -16 -16 -13 -15 -15 -17 -15 -15 -14
21 21 20 19 20 21 21 19 16 14 15 13 11 12 10 9 8 7 2 1 -1 -3 -5 -9 -9 -7 -8 -12 -11 -12 -12 -12 -13 -13 -19 -19 -16 -17 -20 -21 -20 -18 -16 -15

GFSNGP_sfc_temp_081.txt.gz
Temp
45 51 51 49 48 49 46 47 43 45 49 56 58 58 60 60 59 60 61 60 60 60 60 58 58 59 63 63 63 62 61 56 56 54 53 53 53 53 52 53 52 52 50 48
39 48 51 49 49 50 48 48 51 51 51 58 60 58 57 61 60 61 62 62 61 62 60 57 56 54 53 52 52 52 54 51 50 50 50 50 50 49 49 48 48 48 46 45
33 43 45 36 44 50 51 49 50 45 53 59 57 57 58 59 60 60 60 61 60 61 62 57 51 53 53 52 52 51 50 50 49 49 49 48 48 47 46 45 45 44 44 45
30 34 29 43 52 54 52 53 55 56 57 59 59 61 61 60 60 60 59 60 58 55 51 51 52 51 51 51 50 50 49 49 49 49 47 47 46 45 44 45 44 44 45 45
30 31 37 43 48 48 48 48 58 55 59 59 59 56 56 59 59 61 59 59 54 51 51 53 52 52 51 50 50 49 48 48 48 47 46 45 44 44 44 44 44 44 43 41
32 29 25 39 51 58 57 40 57 58 56 58 57 47 54 59 57 56 56 53 51 49 50 50 51 52 50 49 49 47 47 47 47 47 45 44 44 44 45 45 43 41 38 38
32 31 34 46 51 55 38 39 57 59 58 57 54 56 59 56 55 53 53 51 50 50 48 49 49 50 49 49 47 49 48 47 46 47 46 45 45 45 43 40 37 34 33 33
33 30 28 49 50 44 48 55 55 59 60 55 56 57 57 55 53 52 50 50 50 48 47 48 48 48 48 47 49 48 47 46 45 45 46 44 42 40 39 36 33 32 31 29
37 35 47 49 50 52 54 52 55 56 58 59 55 53 52 52 51 50 50 49 50 48 47 47 48 48 45 45 47 46 45 43 42 42 42 42 39 38 36 35 33 31 30 28
39 46 48 51 52 52 55 56 58 58 57 55 51 51 49 51 49 48 49 48 48 47 46 45 47 46 45 45 44 43 40 39 38 37 36 36 36 36 34 33 32 31 30 28
41 47 49 51 51 54 56 56 57 59 59 57 53 52 52 49 48 47 46 45 45 43 42 44 45 45 45 44 43 39 38 37 35 34 33 31 30 31 30 30 32 30 29 28
38 49 47 50 54 54 53 55 56 56 57 58 55 51 49 46 46 44 41 40 38 38 37 38 39 40 41 42 41 37 34 33 32 31 31 31 30 28 31 31 31 31 30 28
44 50 50 52 52 51 52 52 51 51 53 56 52 51 47 40 38 37 36 36 35 34 34 33 32 32 33 34 34 32 30 30 30 30 29 29 29 29 27 28 29 29 29 28
48 47 46 49 49 49 49 46 45 46 45 45 44 42 40 36 35 33 32 32 32 31 30 30 30 29 32 33 31 30 29 28 28 27 27 26 26 26 26 26 24 26 28 28
45 47 49 49 47 45 45 43 38 35 35 35 37 36 34 31 29 29 30 31 30 29 29 29 27 26 28 29 28 27 26 25 26 25 25 25 24 24 24 24 23 23 24 24
42 44 46 44 42 41 40 37 33 31 31 30 29 29 29 29 28 27 28 29 26 24 25 24 24 25 26 26 25 25 25 25 25 24 23 23 22 21 21 20 21 20 18 18
39 39 39 38 37 36 34 33 31 30 29 28 27 28 27 26 24 22 22 23 22 22 22 23 23 25 25 25 25 25 25 24 23 22 21 20 18 18 17 15 15 15 13 11
37 39 38 36 31 29 29 30 30 29 27 27 26 24 22 21 19 19 20 20 19 19 20 22 23 25 25 25 24 23 21 21 20 18 17 15 16 16 13 13 13 13 13 14
35 32 31 31 30 28 27 26 25 25 25 24 23 21 21 21 21 20 20 19 17 16 18 22 23 23 22 22 21 19 17 16 16 14 14 11 10 11 9 9 8 5 7 7
29 30 29 28 28 27 25 25 26 24 25 24 23 21 20 19 19 18 17 16 18 19 21 21 21 19 18 17 17 15 13 11 11 9 7 6 2 0 1 2 4 2 1 3
27 27 26 26 25 25 25 25 24 23 23 22 20 19 18 19 19 18 16 14 17 19 18 17 17 16 15 14 13 10 9 7 5 2 -0 -6 -6 -5 -7 -10 -7 -8 -4 -2
25 24 24 25 24 23 24 24 23 21 20 20 20 19 17 16 15 15 16 15 17 16 15 14 12 9 10 10 9 6 6 4 1 0 -4 -8 -12 -14 -13 -11 -9 -9 -9 -9
24 24 24 23 22 22 22 22 22 21 20 20 19 19 19 18 18 13 10 16 15 12 12 9 6 4 3 3 0 -1 -2 -3 -5 -8 -12 -17 -17 -18 -17 -17 -14 -14 -15 -13
23 24 23 24 24 22 20 20 21 20 18 18 18 18 17 13 12 15 13 11 9 8 7 6 4 2 -1 -3 -5 -7 -8 -10 -13 -16 -13 -15 -22 -20 -19 -19 -16 -17 -17 -15
24 24 23 22 21 20 20 20 19 19 18 17 17 17 17 17 13 13 12 10 9 6 2 0 0 -2 -6 -10 -10 -10 -14 -16 -17 -18 -20 -21 -20 -21 -21 -21 -22 -21 -19 -19
23 22 22 22 21 21 20 19 16 16 16 13 13 12 12 12 11 10 8 6 5 2 0 -3 -6 -10 -12 -11 -16 -17 -15 -12 -16 -17 -20 -20 -21 -18 -21 -19 -22 -21 -22 -20
20 20 19 19 19 19 18 17 15 13 13 11 9 10 9 7 6 5 2 -0 -2 -5 -10 -15 -12 -8 -11 -16 -15 -16 -15 -17 -18 -18 -23 -23 -23 -24 -25 -23 -23 -23 -21 -21

GFSNGP_sfc_temp_084.txt.gz
Temp
40 40 40 41 45 48 47 46 41 43 45 51 54 57 58 60 58 58 58 58 57 58 57 58 57 58 59 59 58 58 57 57 57 56 55 55 54 54 55 57 57 58 54 52
35 41 41 40 46 48 48 45 45 45 45 55 58 57 55 59 60 59 59 59 61 61 59 56 57 57 55 54 53 55 56 55 52 52 52 52 51 51 50 50 50 49 48 47
30 38 38 34 43 47 47 47 47 41 47 54 55 55 56 60 59 59 61 59 61 61 61 59 53 51 50 51 52 52 51 51 50 50 49 49 49 49 48 47 46 45 45 46
30 33 27 41 50 52 49 50 49 49 50 53 56 59 60 60 60 59 59 59 58 58 51 50 49 50 51 52 51 50 50 49 49 49 48 47 47 46 45 45 45 44 44 45
29 30 34 41 46 45 44 47 54 52 52 55 59 55 55 59 58 62 61 62 57 51 50 50 50 52 51 50 50 49 49 48 48 47 46 45 44 44 44 44 44 42 42 41
31 27 26 39 47 51 51 38 52 51 52 54 55 44 51 59 58 57 56 53 50 51 51 52 51 52 50 49 49 47 47 47 47 47 46 44 44 44 44 42 40 38 36 36
31 30 34 45 46 48 36 37 51 52 53 55 54 53 59 59 54 51 50 48 50 50 50 50 51 51 49 49 46 47 47 46 46 46 45 44 43 43 40 37 35 33 32 32
32 30 27 47 45 40 45 47 50 50 52 54 54 55 54 53 50 49 49 49 49 48 47 49 51 50 47 45 47 47 46 45 44 44 44 42 40 39 38 36 32 31 30 29
35 35 46 47 47 51 52 48 51 53 54 55 54 54 50 49 49 49 49 48 48 47 47 47 48 49 44 45 46 44 42 40 40 40 40 40 38 36 35 34 32 31 30 28
37 44 45 49 52 53 53 53 54 56 55 55 52 50 48 48 47 47 48 47 48 47 45 43 45 44 44 43 44 42 39 37 37 35 34 35 35 35 34 32 32 31 30 28
39 46 49 51 51 52 51 52 54 56 55 55 52 49 48 45 43 42 42 43 44 43 42 41 42 41 41 41 40 36 34 34 33 32 31 30 29 30 30 30 31 29 29 28
37 48 44 47 50 50 50 50 51 51 53 54 51 46 43 40 40 40 38 39 37 36 35 35 35 36 37 39 37 34 31 31 31 30 30 30 29 28 31 30 30 30 29 28
44 48 47 49 50 50 47 44 46 45 46 48 48 43 40 36 36 35 34 33 32 32 33 32 32 32 33 34 34 32 31 31 30 30 30 29 29 28 26 29 30 30 29 29
47 45 44 48 47 43 44 43 42 41 40 40 38 38 35 32 32 31 31 31 32 31 30 30 29 29 31 32 31 29 28 27 27 25 25 25 25 25 25 24 23 23 27 27
45 46 45 46 44 41 42 39 36 34 34 33 34 33 32 30 29 28 30 31 30 28 28 27 26 26 28 29 28 27 26 24 24 24 23 23 22 22 22 22 21 21 22 22
41 42 43 42 40 39 38 35 32 29 30 29 29 28 28 27 27 26 28 29 26 23 24 23 23 25 26 25 25 24 24 24 23 22 21 20 19 18 18 17 16 15 14 14
36 39 38 37 35 33 31 31 30 28 28 27 27 27 26 24 23 21 21 22 22 21 22 22 21 23 25 25 24 23 22 21 20 19 18 17 16 14 14 12 12 12 12 12
35 36 38 37 31 29 29 29 29 28 26 26 25 22 21 19 17 18 18 20 20 20 20 21 22 23 23 23 22 21 19 18 17 14 13 12 12 11 9 9 9 8 6 9
32 30 31 31 30 28 26 25 24 24 23 23 22 20 20 19 18 18 18 18 17 16 17 20 22 20 20 19 19 17 14 12 12 11 10 5 5 6 3 2 1 -1 2 3
29 29 29 27 27 26 24 24 24 23 22 22 20 18 16 16 16 16 16 15 17 18 20 19 19 17 16 15 14 13 10 9 8 3 3 1 -3 -6 -4 -2 -1 -5 -7 -4
26 26 26 25 24 25 24 24 23 21 21 20 18 16 16 16 16 16 15 13 16 17 17 16 15 14 14 12 11 7 5 2 1 -2 -3 -8 -9 -7 -10 -13 -10 -12 -13 -13
24 24 23 23 23 22 22 23 22 20 19 17 16 15 14 13 13 13 14 13 15 14 14 12 10 8 9 9 8 5 4 1 -1 -3 -7 -9 -12 -16 -19 -18 -18 -18 -19 -19
23 23 22 21 20 20 21 21 20 20 18 18 17 16 15 15 15 11 9 13 13 11 10 7 5 4 2 2 0 -1 -2 -6 -7 -10 -16 -20 -21 -22 -21 -20 -20 -21 -19 -17
22 22 21 22 21 20 17 18 18 18 16 16 15 15 14 11 10 12 11 9 7 7 5 4 2 0 -2 -3 -3 -7 -9 -12 -18 -20 -17 -21 -25 -25 -22 -24 -21 -21 -22 -20
22 22 21 20 19 18 18 18 17 17 16 15 15 16 16 15 10 9 9 7 8 4 1 -1 -2 -3 -6 -7 -8 -14 -19 -20 -21 -22 -23 -23 -23 -24 -25 -25 -26 -25 -23 -24
21 20 20 20 19 19 18 17 14 14 13 10 10 10 10 10 9 8 6 5 4 2 -2 -5 -8 -9 -9 -13 -18 -18 -18 -14 -20 -20 -23 -23 -24 -22 -25 -23 -26 -25 -25 -24
19 19 18 17 17 17 16 15 13 11 12 9 7 8 7 6 5 4 2 0 -2 -4 -9 -11 -11 -9 -14 -18 -17 -19 -19 -20 -21 -20 -25 -26 -26 -28 -29 -29 -28 -26 -25 -24

GFSNGP_sfc_temp_087.txt.gz
Temp
41 43 43 41 42 43 41 44 42 49 51 57 62 63 66 67 66 65 66 66 65 65 65 65 64 63 64 64 63 64 63 62 62 63 64 64 63 64 64 64 63 64 62 62
34 40 42 40 44 46 45 46 47 51 51 61 65 64 63 64 65 65 65 68 68 66 65 64 64 63 62 62 62 63 62 61 63 63 62 62 62 62 61 60 59 59 58 56
31 39 40 35 43 45 47 51 51 46 54 60 59 60 61 64 65 64 67 67 68 66 66 65 64 62 61 60 61 61 61 61 57 56 56 55 54 54 54 53 50 50 48 48
30 34 26 46 52 52 47 51 56 55 56 59 61 63 64 66 66 66 66 68 67 66 63 60 59 59 57 57 55 55 54 53 53 52 52 51 50 49 47 47 46 46 45 45
28 31 39 44 48 46 41 43 53 55 58 59 63 61 62 66 66 67 68 68 68 65 57 54 56 56 56 54 53 52 51 50 50 50 48 47 45 45 45 44 42 41 41 39
31 27 26 41 47 49 52 39 50 52 55 56 59 50 60 66 62 62 62 63 59 57 55 54 55 56 55 51 50 48 48 47 48 47 46 45 44 43 42 40 38 37 35 35
29 27 36 46 48 50 37 39 47 50 52 54 55 59 63 61 55 52 53 54 56 56 53 53 54 54 50 49 46 47 47 47 46 46 45 44 43 41 39 36 34 32 31 32
31 28 27 49 48 41 44 48 49 51 52 53 56 56 57 54 51 50 48 50 52 50 50 52 53 50 47 45 47 47 46 45 44 44 43 42 39 38 37 35 32 31 30 29
38 38 46 51 50 51 50 49 50 50 53 57 55 53 52 48 49 48 48 48 49 49 48 49 49 48 44 44 46 45 43 41 39 39 39 39 38 36 35 34 33 31 30 28
41 47 48 49 52 53 56 52 55 55 55 56 53 51 49 48 47 47 47 46 47 45 43 43 46 47 47 47 46 43 39 37 35 34 34 35 34 34 34 32 31 31 29 28
42 47 49 52 52 54 53 54 54 56 58 52 50 47 45 44 42 41 42 43 43 41 39 39 41 42 43 43 42 38 36 35 33 33 32 31 31 31 31 31 32 31 31 32
40 49 48 50 53 52 51 50 50 52 55 53 50 43 41 39 39 39 38 38 37 38 37 37 38 38 39 40 39 37 34 33 32 32 32 32 30 29 31 31 31 31 30 31
48 52 51 51 51 53 52 48 46 46 52 44 43 41 39 35 34 34 34 34 33 33 33 33 33 32 34 34 34 33 32 31 31 30 30 30 31 30 27 29 30 30 30 30
51 50 47 50 49 50 48 43 42 42 42 40 37 36 33 32 33 32 30 31 31 30 30 30 29 28 30 31 30 29 28 28 29 30 29 29 29 29 29 28 25 25 25 25
50 50 51 50 48 46 44 42 38 35 35 35 36 34 33 30 28 28 29 29 28 27 26 27 26 26 28 29 28 26 26 26 26 26 26 26 26 26 26 25 23 23 23 23
44 45 46 45 45 43 41 39 35 33 33 32 30 29 28 27 26 26 27 28 25 22 23 23 23 24 25 25 25 25 25 24 25 25 24 23 23 22 22 21 20 19 18 17
39 42 42 42 39 36 35 35 34 32 30 29 27 27 26 25 23 22 21 22 21 20 21 21 21 23 25 26 26 24 24 23 21 22 21 20 19 19 19 18 17 17 14 13
37 36 37 37 37 33 31 31 32 31 28 27 25 23 22 21 19 19 19 20 19 19 20 21 22 23 24 25 24 23 21 20 19 17 17 16 16 16 15 14 14 13 13 12
34 32 33 34 34 32 30 28 26 25 23 22 21 19 19 19 19 19 19 18 17 16 17 21 22 21 20 20 20 19 17 16 15 14 13 11 12 12 12 11 10 9 10 9
30 30 30 28 29 27 25 25 25 23 22 20 19 18 17 17 18 17 17 16 17 18 21 20 19 18 17 16 16 16 14 12 12 10 10 9 9 8 8 6 7 7 7 7
26 26 26 25 24 24 24 23 21 20 20 20 18 16 16 17 17 17 16 14 15 17 17 17 17 16 15 14 14 12 10 9 8 8 7 7 6 6 5 5 5 4 4 4
24 23 22 22 21 21 22 21 21 19 17 16 16 15 14 13 13 13 14 13 14 14 15 14 13 11 12 11 11 9 8 8 7 7 6 5 5 3 3 3 2 2 2 1
23 22 21 21 19 19 19 18 18 17 16 16 16 16 16 16 16 12 9 14 14 12 12 10 7 6 6 8 7 6 5 5 4 3 3 2 2 2 2 1 1 0 -1 -1
21 21 20 20 19 18 15 16 16 16 15 15 14 14 14 11 10 12 12 10 9 9 8 7 5 4 5 5 5 4 4 3 2 2 0 -3 1 1 1 -2 -2 -2 -3 -4
21 21 20 19 17 16 16 17 16 16 15 14 14 14 14 15 11 11 10 9 9 8 6 3 3 3 5 5 3 3 2 2 1 1 1 1 -0 -1 -2 -3 -5 -4 -5 -5
20 19 19 19 19 18 17 16 13 13 12 10 10 10 10 11 10 10 8 7 7 5 5 4 3 3 3 3 1 1 2 1 1 0 -1 -1 -2 -2 -4 -5 -6 -6 -6 -6
19 18 17 16 17 17 16 15 12 11 12 10 8 9 8 8 7 6 5 4 3 2 2 3 3 2 2 2 1 0 0 -0 -3 0 -1 -3 -4 -4 -6 -7 -7 -7 -7 -7

GFSNGP_sfc_temp_090.txt.gz
Temp
46 47 48 48 48 50 49 51 45 51 54 62 67 67 70 75 78 77 76 77 78 78 77 77 76 75 75 75 73 73 71 70 69 69 70 70 69 69 68 67 68 70 70 70
39 46 47 45 50 52 52 53 55 55 54 67 70 72 71 72 76 76 76 78 80 80 79 77 76 75 74 73 73 71 70 70 71 70 70 69 69 68 69 69 70 70 69 68
35 45 44 38 46 49 53 57 56 50 59 67 67 69 70 71 75 75 77 78 78 80 78 77 77 75 75 73 73 70 69 70 70 70 69 69 69 69 68 67 66 60 51 49
35 37 27 49 58 58 54 57 59 57 60 65 68 72 75 75 73 75 75 77 78 80 80 78 77 76 74 74 71 68 69 69 69 67 66 64 62 58 52 50 48 47 44 42
31 35 42 47 53 53 52 53 55 54 57 61 66 69 70 75 76 73 76 77 79 81 82 74 73 73 71 69 69 67 64 59 59 60 54 50 48 47 46 43 41 40 39 38
35 29 28 46 55 59 58 44 55 56 56 56 60 55 64 74 72 70 73 74 74 74 71 70 69 69 66 60 59 53 52 51 50 49 48 46 45 42 41 40 37 37 35 35
32 30 39 52 57 57 39 44 55 57 56 55 52 57 64 68 67 60 62 64 66 67 65 65 65 63 56 51 48 48 49 48 47 47 45 43 41 40 38 35 34 32 31 31
34 29 28 55 53 42 51 57 58 59 55 48 56 59 62 61 57 53 54 58 60 58 56 58 59 54 48 46 47 47 45 44 44 43 43 41 39 38 37 35 32 31 30 30
43 43 54 55 54 58 60 57 57 58 59 51 52 56 57 51 51 50 50 53 54 51 49 51 52 50 44 44 44 44 42 40 40 40 40 40 38 36 35 34 32 31 31 29
46 53 56 58 60 60 60 59 60 59 57 60 57 55 51 49 49 48 48 47 48 44 43 43 46 47 46 46 46 43 39 37 37 37 35 36 36 36 34 33 32 31 31 30
49 54 56 58 60 61 60 59 60 58 55 58 58 52 49 46 45 46 45 44 43 41 40 40 43 44 47 47 45 39 37 36 35 34 33 31 32 31 30 30 32 32 33 33
45 55 55 56 61 60 57 57 55 52 53 60 59 51 42 38 41 40 40 40 39 40 40 42 44 45 44 44 43 40 37 36 35 34 32 31 30 29 30 31 32 32 32 31
54 60 59 60 60 61 56 55 50 50 51 53 49 45 42 35 33 32 33 34 35 32 35 36 36 36 39 39 36 34 33 33 33 32 32 30 31 30 26 27 28 29 28 28
60 59 54 58 57 58 54 50 48 45 45 42 40 39 37 33 33 32 30 30 30 29 29 29 29 28 30 31 30 30 30 30 32 33 34 35 34 33 33 30 26 24 25 26
57 57 57 58 57 57 53 48 46 44 42 40 37 35 34 31 28 28 28 28 28 28 27 27 26 27 29 29 29 29 30 31 32 31 32 31 31 31 31 30 28 28 28 26
49 52 55 54 54 51 50 46 43 40 40 36 33 31 29 28 27 26 27 28 25 23 23 23 24 25 26 26 26 28 29 29 30 30 29 29 29 29 28 26 26 24 22 22
42 44 46 45 49 47 45 46 43 42 38 35 31 30 28 25 23 21 21 22 22 21 22 22 22 25 27 29 29 29 29 28 27 28 28 27 26 25 25 24 22 21 17 16
44 43 41 40 41 44 42 40 40 38 34 31 28 26 24 22 19 19 19 20 19 19 21 22 25 27 28 28 28 26 25 24 23 22 22 22 22 22 22 21 20 19 19 15
38 37 37 36 39 40 38 35 33 30 26 25 23 22 22 21 21 20 21 19 19 18 20 24 25 26 25 26 26 26 24 22 21 20 20 19 20 20 19 18 17 17 17 16
34 33 32 31 32 31 27 26 26 25 25 23 22 20 20 19 20 19 19 17 18 19 23 24 23 22 21 22 22 23 22 20 19 18 18 18 17 15 14 13 15 15 15 15
28 29 27 26 25 25 24 24 22 21 21 21 19 17 17 18 19 19 18 15 18 21 22 22 22 22 21 21 21 19 18 17 17 16 15 15 15 15 14 14 13 13 13 13
26 24 24 23 22 21 21 22 20 19 19 18 17 15 14 14 15 16 18 17 19 19 20 19 18 17 18 17 19 17 17 16 16 15 14 14 13 13 12 12 11 12 12 11
25 24 23 21 20 19 20 19 19 19 18 18 18 18 17 17 19 17 13 17 18 17 17 14 12 12 14 16 15 15 14 13 13 12 12 12 12 11 11 10 11 10 9 9
23 22 21 21 20 19 16 17 17 17 16 15 15 15 14 13 13 16 15 13 14 14 14 12 11 11 13 13 13 12 13 12 12 11 9 8 10 10 10 8 8 9 7 6
22 22 21 20 19 19 18 18 17 16 15 14 13 15 15 16 13 14 14 13 12 12 11 8 9 10 12 12 11 11 11 11 11 10 10 9 9 8 9 9 6 6 5 5
23 22 22 21 21 20 19 17 15 14 13 11 12 12 12 13 13 13 12 12 12 11 11 11 11 11 11 11 10 10 10 9 10 9 8 8 8 8 7 5 5 5 4 4
20 19 19 18 19 19 17 16 15 13 13 13 11 13 13 13 12 12 11 12 11 11 11 11 11 10 10 10 9 9 10 9 5 8 8 8 7 7 4 4 4 4 3 2